DW8690 Weather Reports


Display with metric or nautical units.
time (UTC)temp
F
wind
direction
speed
MPH
gust
MPH
rain 1hr
in
rain 24hr
in
rain mn
in
humidity
%
barometer
mb
20260831122403 48 0 0.0 2.0 0.00 0.00 0.00 58 1011.2
20260831122306 48 0 0.0 2.0 0.00 0.00 0.00 58 1011.2
20260831122204 47 0 0.0 2.0 0.00 0.00 0.00 58 1011.1
20260831122104 47 0 0.0 2.0 0.00 0.00 0.00 58 1011.1
20260831122004 47 0 0.0 2.0 0.00 0.00 0.00 58 1011.1
20260831121904 47 0 0.0 2.0 0.00 0.00 0.00 59 1011.2
20260831121804 47 0 0.0 2.0 0.00 0.00 0.00 58 1011.1
20260831121704 47 0 0.0 2.0 0.00 0.00 0.00 59 1011.2
20260831121604 47 0 0.0 2.0 0.00 0.00 0.00 59 1011.2
20260831121504 47 0 0.0 2.0 0.00 0.00 0.00 59 1011.2
20260831121405 47 0 0.0 2.0 0.00 0.00 0.00 59 1011.3
20260831121304 47 135 1.0 2.0 0.00 0.00 0.00 59 1011.1
20260831121204 46 0 0.0 2.0 0.00 0.00 0.00 58 1011.2
20260831121104 46 0 0.0 2.0 0.00 0.00 0.00 58 1011.2
20260831121004 46 0 0.0 2.0 0.00 0.00 0.00 58 1011.2
20260831120904 47 135 1.0 2.0 0.00 0.00 0.00 58 1011.2
20260831120804 46 135 1.0 2.0 0.00 0.00 0.00 56 1011.2
20260831120704 46 0 0.0 0.0 0.00 0.00 0.00 54 1011.2
20260831120604 46 0 0.0 0.0 0.00 0.00 0.00 54 1011.2
20260831120504 46 0 0.0 0.0 0.00 0.00 0.00 54 1011.1
20260831120404 46 0 0.0 0.0 0.00 0.00 0.00 54 1011.3
20260831120304 46 0 0.0 1.0 0.00 0.00 0.00 54 1011.1
20260831120204 46 0 0.0 1.0 0.00 0.00 0.00 54 1011.2
20260831120103 46 0 0.0 1.0 0.00 0.00 0.00 54 1011.1
20260831120004 46 0 0.0 1.0 0.00 0.00 0.00 54 1011.2
20260831115904 47 0 0.0 2.0 0.00 0.00 0.00 54 1011.2
20260831115804 47 0 0.0 2.0 0.00 0.00 0.00 54 1011.2
20260831115704 47 0 0.0 2.0 0.00 0.00 0.00 54 1011.0
20260831115604 47 0 0.0 2.0 0.00 0.00 0.00 53 1011.1
20260831115504 47 0 0.0 2.0 0.00 0.00 0.00 53 1011.1
20260831115403 47 0 0.0 2.0 0.00 0.00 0.00 53 1011.2
20260831115306 47 0 0.0 2.0 0.00 0.00 0.00 52 1011.2
20260831115204 47 0 0.0 2.0 0.00 0.00 0.00 52 1011.2
20260831115104 47 0 0.0 2.0 0.00 0.00 0.00 52 1011.1
20260831115004 47 0 0.0 2.0 0.00 0.00 0.00 52 1011.3
20260831114904 47 0 0.0 2.0 0.00 0.00 0.00 52 1011.3
20260831114804 47 0 0.0 2.0 0.00 0.00 0.00 52 1011.3
20260831114703 48 0 0.0 2.0 0.00 0.00 0.00 52 1011.3
20260831114604 48 0 0.0 2.0 0.00 0.00 0.00 52 1011.3
20260831114504 48 0 0.0 2.0 0.00 0.00 0.00 52 1011.3
20260831114403 48 0 0.0 2.0 0.00 0.00 0.00 52 1011.1
20260831114304 48 0 0.0 2.0 0.00 0.00 0.00 52 1011.3
20260831114204 48 0 0.0 2.0 0.00 0.00 0.00 52 1011.2
20260831114104 48 0 0.0 2.0 0.00 0.00 0.00 52 1011.2
20260831114003 48 0 0.0 2.0 0.00 0.00 0.00 51 1011.2
20260831113904 48 0 0.0 1.0 0.00 0.00 0.00 51 1011.3
20260831113804 48 0 0.0 1.0 0.00 0.00 0.00 51 1011.3
20260831113704 49 0 0.0 1.0 0.00 0.00 0.00 51 1011.2
20260831113604 49 0 0.0 1.0 0.00 0.00 0.00 51 1011.3
20260831113504 49 0 0.0 1.0 0.00 0.00 0.00 51 1011.3
20260831113404 49 0 0.0 1.0 0.00 0.00 0.00 51 1011.2
20260831113304 49 0 0.0 1.0 0.00 0.00 0.00 51 1011.3
20260831113204 49 0 0.0 1.0 0.00 0.00 0.00 51 1011.3
20260831113104 49 0 0.0 2.0 0.00 0.00 0.00 51 1011.3
20260831113004 49 0 0.0 2.0 0.00 0.00 0.00 50 1011.4
20260831112904 49 0 0.0 2.0 0.00 0.00 0.00 50 1011.3
20260831112805 49 0 0.0 2.0 0.00 0.00 0.00 49 1011.3
20260831112104 50 238 1.0 2.0 0.00 0.00 0.00 46 1011.3
20260831112004 50 0 0.0 2.0 0.00 0.00 0.00 46 1011.2
20260831111904 51 0 0.0 2.0 0.00 0.00 0.00 46 1011.2
20260831111804 51 0 0.0 2.0 0.00 0.00 0.00 45 1011.3
20260831111704 51 0 0.0 2.0 0.00 0.00 0.00 45 1011.3
20260831111603 51 195 1.0 2.0 0.00 0.00 0.00 45 1011.2
20260831111504 51 178 2.0 2.0 0.00 0.00 0.00 45 1011.2
20260831111404 51 148 1.0 2.0 0.00 0.00 0.00 45 1011.2
20260831111304 51 0 0.0 1.0 0.00 0.00 0.00 45 1011.2
20260831111203 51 0 0.0 1.0 0.00 0.00 0.00 45 1011.2
20260831111104 51 0 0.0 1.0 0.00 0.00 0.00 45 1011.2
20260831111004 51 0 0.0 1.0 0.00 0.00 0.00 45 1011.2
20260831110904 52 0 0.0 1.0 0.00 0.00 0.00 45 1011.2
20260831110804 52 0 0.0 2.0 0.00 0.00 0.00 45 1011.2
20260831110704 52 0 0.0 2.0 0.00 0.00 0.00 45 1011.2
20260831110604 52 0 0.0 2.0 0.00 0.00 0.00 45 1011.3
20260831110504 52 0 0.0 2.0 0.00 0.00 0.00 45 1011.3
20260831110404 52 0 0.0 2.0 0.00 0.00 0.00 45 1011.4
20260831110304 52 0 0.0 2.0 0.00 0.00 0.00 45 1011.4
20260831110204 52 0 0.0 2.0 0.00 0.00 0.00 45 1011.3
20260831110104 52 0 0.0 3.0 0.00 0.00 0.00 45 1011.3
20260831110004 52 0 0.0 3.0 0.00 0.00 0.00 45 1011.3
20260831105905 52 0 0.0 3.0 0.00 0.00 0.00 45 1011.3
20260831105803 52 0 0.0 3.0 0.00 0.00 0.00 45 1011.3
20260831105703 52 0 0.0 4.0 0.00 0.00 0.00 45 1011.3
20260831105604 52 0 0.0 4.0 0.00 0.00 0.00 45 1011.3
20260831105504 52 103 1.0 4.0 0.00 0.00 0.00 45 1011.3
20260831105403 52 102 1.0 4.0 0.00 0.00 0.00 45 1011.3
20260831105306 52 105 1.0 4.0 0.00 0.00 0.00 45 1011.4
20260831105204 51 109 2.0 4.0 0.00 0.00 0.00 46 1011.4
20260831105104 51 113 2.0 4.0 0.00 0.00 0.00 46 1011.3
20260831105004 51 114 2.0 4.0 0.00 0.00 0.00 46 1011.4
20260831104904 51 114 1.0 4.0 0.00 0.00 0.00 46 1011.2
20260831104804 51 115 2.0 4.0 0.00 0.00 0.00 47 1011.3
20260831104704 51 110 2.0 4.0 0.00 0.00 0.00 47 1011.4
20260831104604 51 113 1.0 4.0 0.00 0.00 0.00 47 1011.2
20260831104503 51 113 1.0 4.0 0.00 0.00 0.00 47 1011.3
20260831104404 51 112 2.0 4.0 0.00 0.00 0.00 48 1011.3
20260831104304 51 110 1.0 4.0 0.00 0.00 0.00 48 1011.3
20260831104203 51 0 0.0 4.0 0.00 0.00 0.00 48 1011.2
20260831104104 51 106 2.0 4.0 0.00 0.00 0.00 48 1011.3
20260831104004 51 110 2.0 3.0 0.00 0.00 0.00 48 1011.2
20260831103904 51 115 1.0 3.0 0.00 0.00 0.00 48 1011.3
20260831103803 51 123 2.0 3.0 0.00 0.00 0.00 48 1011.2
20260831103704 51 132 2.0 3.0 0.00 0.00 0.00 48 1011.2
20260831102503 53 0 0.0 3.0 0.00 0.00 0.00 45 1011.2
20260831102404 53 218 1.0 3.0 0.00 0.00 0.00 45 1011.3
20260831102306 53 223 1.0 3.0 0.00 0.00 0.00 45 1011.3
20260831102204 53 224 1.0 3.0 0.00 0.00 0.00 44 1011.4
20260831102103 53 212 2.0 3.0 0.00 0.00 0.00 43 1011.3
20260831102004 53 182 1.0 3.0 0.00 0.00 0.00 41 1011.4
20260831101904 54 153 1.0 3.0 0.00 0.00 0.00 40 1011.3
20260831101803 54 134 1.0 3.0 0.00 0.00 0.00 40 1011.3
20260831101704 54 120 2.0 3.0 0.00 0.00 0.00 39 1011.4
20260831101604 54 0 0.0 3.0 0.00 0.00 0.00 39 1011.4
20260831101503 54 0 0.0 3.0 0.00 0.00 0.00 39 1011.4
20260831101404 54 0 0.0 3.0 0.00 0.00 0.00 39 1011.3
20260831100804 55 91 1.0 3.0 0.00 0.00 0.00 38 1011.3
20260831100704 55 90 2.0 3.0 0.00 0.00 0.00 38 1011.2
20260831100604 55 91 2.0 3.0 0.00 0.00 0.00 38 1011.2
20260831100504 55 94 2.0 3.0 0.00 0.00 0.00 38 1011.3
20260831100404 55 94 2.0 3.0 0.00 0.00 0.00 38 1011.2
20260831100304 55 94 2.0 3.0 0.00 0.00 0.00 38 1011.3
20260831100204 55 95 2.0 3.0 0.00 0.00 0.00 38 1011.2
20260831100103 55 95 2.0 3.0 0.00 0.00 0.00 38 1011.2
20260831100004 55 91 2.0 4.0 0.00 0.00 0.00 38 1011.3
20260831095904 55 90 2.0 4.0 0.00 0.00 0.00 38 1011.2
20260831095804 55 90 2.0 4.0 0.00 0.00 0.00 38 1011.2
20260831095704 55 90 1.0 4.0 0.00 0.00 0.00 38 1011.2
20260831095604 55 89 1.0 4.0 0.00 0.00 0.00 38 1011.0
20260831095504 55 86 2.0 4.0 0.00 0.00 0.00 38 1011.2
20260831095404 55 86 2.0 4.0 0.00 0.00 0.00 38 1011.2
20260831095306 55 86 2.0 4.0 0.00 0.00 0.00 38 1011.2
20260831095203 55 87 2.0 4.0 0.00 0.00 0.00 38 1011.1
20260831095104 55 87 2.0 4.0 0.00 0.00 0.00 38 1011.2
20260831095004 55 88 2.0 4.0 0.00 0.00 0.00 38 1011.2
20260831094903 55 90 3.0 4.0 0.00 0.00 0.00 38 1011.2
20260831094804 55 90 3.0 4.0 0.00 0.00 0.00 38 1011.2
20260831094704 55 90 3.0 4.0 0.00 0.00 0.00 38 1011.2
20260831093605 55 90 3.0 4.0 0.00 0.00 0.00 38 1011.1
20260831093503 55 90 3.0 4.0 0.00 0.00 0.00 38 1011.1
20260831093404 55 90 2.0 4.0 0.00 0.00 0.00 38 1011.1
20260831093304 55 90 2.0 4.0 0.00 0.00 0.00 38 1011.1
20260831093204 55 93 2.0 4.0 0.00 0.00 0.00 38 1011.1
20260831093103 55 95 2.0 4.0 0.00 0.00 0.00 38 1011.1
20260831093004 55 98 2.0 4.0 0.00 0.00 0.00 38 1011.0
20260831092904 55 98 3.0 4.0 0.00 0.00 0.00 38 1011.1
20260831092804 55 97 3.0 4.0 0.00 0.00 0.00 38 1011.2
20260831092704 55 98 2.0 4.0 0.00 0.00 0.00 37 1011.1
20260831092604 55 98 2.0 4.0 0.00 0.00 0.00 37 1011.1
20260831092503 55 98 2.0 4.0 0.00 0.00 0.00 37 1011.1
20260831092404 55 100 2.0 4.0 0.00 0.00 0.00 37 1011.1
20260831092306 55 103 1.0 4.0 0.00 0.00 0.00 37 1011.0
20260831092204 55 101 1.0 4.0 0.00 0.00 0.00 37 1011.0
20260831092103 55 102 1.0 4.0 0.00 0.00 0.00 37 1011.1
20260831092004 55 104 1.0 4.0 0.00 0.00 0.00 37 1011.1
20260831091904 55 105 3.0 4.0 0.00 0.00 0.00 37 1011.1
20260831091803 55 110 2.0 4.0 0.00 0.00 0.00 37 1011.1
20260831091704 55 113 2.0 4.0 0.00 0.00 0.00 37 1011.2
20260831091604 56 113 1.0 4.0 0.00 0.00 0.00 37 1011.1
20260831091504 56 113 1.0 4.0 0.00 0.00 0.00 36 1011.1
20260831091404 56 109 1.0 4.0 0.00 0.00 0.00 36 1011.1
20260831091304 56 106 1.0 4.0 0.00 0.00 0.00 36 1011.2
20260831091204 56 102 1.0 4.0 0.00 0.00 0.00 37 1011.1
20260831091104 56 99 1.0 4.0 0.00 0.00 0.00 36 1011.1
20260831091003 56 96 2.0 4.0 0.00 0.00 0.00 36 1011.1
20260831090904 56 93 2.0 4.0 0.00 0.00 0.00 36 1011.2
20260831090704 56 90 2.0 4.0 0.00 0.00 0.00 37 1011.1
20260831090604 56 90 2.0 5.0 0.00 0.00 0.00 37 1011.1
20260831090503 56 90 2.0 5.0 0.00 0.00 0.00 37 1011.1
20260831090404 56 90 2.0 5.0 0.00 0.00 0.00 37 1011.1
20260831090304 56 88 2.0 5.0 0.00 0.00 0.00 37 1011.1
20260831090203 56 87 2.0 5.0 0.00 0.00 0.00 37 1011.1
20260831090104 56 87 2.0 5.0 0.00 0.00 0.00 37 1011.2
20260831090004 56 87 2.0 5.0 0.00 0.00 0.00 37 1011.2
20260831085904 55 87 2.0 5.0 0.00 0.00 0.00 37 1011.2
20260831085804 55 87 2.0 5.0 0.00 0.00 0.00 37 1011.2
20260831085704 55 87 3.0 5.0 0.00 0.00 0.00 37 1011.3
20260831085604 55 87 4.0 5.0 0.00 0.00 0.00 37 1011.2
20260831085504 55 87 4.0 5.0 0.00 0.00 0.00 37 1011.3
20260831085403 55 87 4.0 4.0 0.00 0.00 0.00 37 1011.1
20260831085306 55 89 4.0 4.0 0.00 0.00 0.00 37 1011.2
20260831085205 55 90 3.0 4.0 0.00 0.00 0.00 37 1011.1
20260831084503 55 95 2.0 4.0 0.00 0.00 0.00 37 1011.1
20260831084404 55 90 2.0 4.0 0.00 0.00 0.00 37 1011.1
20260831084304 55 90 2.0 4.0 0.00 0.00 0.00 37 1011.3
20260831084203 56 90 2.0 4.0 0.00 0.00 0.00 37 1011.2
20260831084104 56 90 2.0 4.0 0.00 0.00 0.00 37 1011.2
20260831084004 56 90 2.0 4.0 0.00 0.00 0.00 37 1011.1
20260831083403 56 90 3.0 4.0 0.00 0.00 0.00 37 1011.2
20260831083303 56 90 2.0 4.0 0.00 0.00 0.00 37 1011.3
20260831083204 56 90 2.0 4.0 0.00 0.00 0.00 37 1011.2
20260831083104 56 90 2.0 4.0 0.00 0.00 0.00 37 1011.3
20260831083004 56 90 2.0 4.0 0.00 0.00 0.00 38 1011.2
20260831082903 56 90 2.0 4.0 0.00 0.00 0.00 38 1011.1
20260831082804 56 90 2.0 4.0 0.00 0.00 0.00 38 1011.2
20260831082704 56 88 2.0 4.0 0.00 0.00 0.00 39 1011.2
20260831082604 56 86 3.0 4.0 0.00 0.00 0.00 39 1011.3
20260831082503 56 86 3.0 4.0 0.00 0.00 0.00 40 1011.2
20260831082404 55 85 4.0 4.0 0.00 0.00 0.00 40 1011.2
20260831081803 56 85 2.0 3.0 0.00 0.00 0.00 38 1011.3
20260831081704 56 89 2.0 3.0 0.00 0.00 0.00 38 1011.3
20260831081604 56 99 1.0 2.0 0.00 0.00 0.00 37 1011.3
20260831081504 56 0 0.0 2.0 0.00 0.00 0.00 37 1011.4
20260831081403 57 0 0.0 2.0 0.00 0.00 0.00 37 1011.4
20260831081304 57 105 1.0 2.0 0.00 0.00 0.00 37 1011.3
20260831081204 57 94 1.0 2.0 0.00 0.00 0.00 36 1011.4
20260831081104 57 0 0.0 2.0 0.00 0.00 0.00 36 1011.3
20260831081004 57 0 0.0 1.0 0.00 0.00 0.00 35 1011.3
20260831080904 58 0 0.0 1.0 0.00 0.00 0.00 35 1011.4
20260831080804 58 0 0.0 1.0 0.00 0.00 0.00 35 1011.4
20260831080704 59 0 0.0 1.0 0.00 0.00 0.00 33 1011.4
20260831080204 59 0 0.0 2.0 0.00 0.00 0.00 33 1011.4
20260831080104 59 0 0.0 2.0 0.00 0.00 0.00 33 1011.3
20260831080004 59 0 0.0 2.0 0.00 0.00 0.00 33 1011.3
20260831075903 59 0 0.0 2.0 0.00 0.00 0.00 33 1011.4
20260831075803 59 0 0.0 2.0 0.00 0.00 0.00 33 1011.3
20260831075704 59 0 0.0 2.0 0.00 0.00 0.00 33 1011.3
20260831075604 59 0 0.0 2.0 0.00 0.00 0.00 33 1011.3
20260831075503 59 0 0.0 2.0 0.00 0.00 0.00 33 1011.3
20260831075404 59 0 0.0 2.0 0.00 0.00 0.00 33 1011.4
20260831075306 59 0 0.0 2.0 0.00 0.00 0.00 33 1011.4
20260831075203 59 0 0.0 2.0 0.00 0.00 0.00 33 1011.4
20260831075104 59 0 0.0 2.0 0.00 0.00 0.00 33 1011.4
20260831074404 60 0 0.0 3.0 0.00 0.00 0.00 32 1011.3
20260831074304 60 0 0.0 4.0 0.00 0.00 0.00 32 1011.4
20260831074204 60 0 0.0 4.0 0.00 0.00 0.00 32 1011.4
20260831074103 60 249 1.0 4.0 0.00 0.00 0.00 32 1011.4
20260831074004 60 0 0.0 4.0 0.00 0.00 0.00 32 1011.4
20260831073905 60 0 0.0 4.0 0.00 0.00 0.00 32 1011.4
20260831073803 60 0 0.0 4.0 0.00 0.00 0.00 33 1011.2
20260831073704 60 0 0.0 4.0 0.00 0.00 0.00 32 1011.4
20260831073604 60 0 0.0 4.0 0.00 0.00 0.00 33 1011.4
20260831073504 60 207 1.0 4.0 0.00 0.00 0.00 33 1011.4
20260831073404 60 197 2.0 4.0 0.00 0.00 0.00 33 1011.3
20260831073304 60 200 2.0 4.0 0.00 0.00 0.00 33 1011.3
20260831073204 60 0 0.0 4.0 0.00 0.00 0.00 34 1011.4
20260831073103 60 150 1.0 4.0 0.00 0.00 0.00 34 1011.2
20260831073004 60 0 0.0 4.0 0.00 0.00 0.00 34 1011.3
20260831072904 60 0 0.0 4.0 0.00 0.00 0.00 34 1011.3
20260831072804 60 0 0.0 4.0 0.00 0.00 0.00 35 1011.3
20260831072703 60 0 0.0 4.0 0.00 0.00 0.00 35 1011.2
20260831072604 60 135 1.0 4.0 0.00 0.00 0.00 35 1011.3
20260831072504 60 0 0.0 4.0 0.00 0.00 0.00 34 1011.3
20260831072404 60 0 0.0 4.0 0.00 0.00 0.00 35 1011.1
20260831072306 60 131 1.0 4.0 0.00 0.00 0.00 35 1011.3
20260831072204 59 135 1.0 4.0 0.00 0.00 0.00 37 1011.3
20260831071704 59 125 1.0 4.0 0.00 0.00 0.00 37 1011.3
20260831071604 59 118 1.0 4.0 0.00 0.00 0.00 37 1011.2
20260831071504 59 115 1.0 4.0 0.00 0.00 0.00 37 1011.4
20260831071404 59 110 1.0 2.0 0.00 0.00 0.00 37 1011.3
20260831071305 59 112 1.0 2.0 0.00 0.00 0.00 37 1011.3
20260831071204 59 101 1.0 4.0 0.00 0.00 0.00 38 1011.3
20260831070604 59 0 0.0 4.0 0.00 0.00 0.00 39 1011.3
20260831070504 59 0 0.0 4.0 0.00 0.00 0.00 39 1011.2
20260831070404 59 104 1.0 4.0 0.00 0.00 0.00 39 1011.2
20260831070303 59 104 1.0 4.0 0.00 0.00 0.00 39 1011.2
20260831070204 59 105 2.0 4.0 0.00 0.00 0.00 39 1011.1
20260831070104 59 100 2.0 4.0 0.00 0.00 0.00 39 1011.2
20260831070007 59 100 1.0 4.0 0.00 0.00 0.00 40 1011.2
20260831065904 59 100 1.0 4.0 0.00 0.00 0.00 40 1011.2
20260831065804 59 100 1.0 4.0 0.00 0.00 0.00 40 1011.2
20260831065704 59 100 2.0 4.0 0.00 0.00 0.00 40 1011.2
20260831065604 59 100 1.0 4.0 0.00 0.00 0.00 40 1011.2
20260831065504 60 0 0.0 4.0 0.00 0.00 0.00 40 1011.1
20260831065404 60 0 0.0 4.0 0.00 0.00 0.00 40 1011.2
20260831065306 60 90 2.0 4.0 0.00 0.00 0.00 40 1011.1
20260831065204 60 89 2.0 3.0 0.00 0.00 0.00 39 1011.0
20260831065104 60 95 2.0 3.0 0.00 0.00 0.00 38 1011.0
20260831065003 60 96 2.0 3.0 0.00 0.00 0.00 38 1011.1
20260831064903 61 98 2.0 3.0 0.00 0.00 0.00 37 1011.0
20260831064804 61 105 1.0 3.0 0.00 0.00 0.00 36 1011.0
20260831064704 61 109 2.0 3.0 0.00 0.00 0.00 35 1011.0
20260831064603 62 0 0.0 2.0 0.00 0.00 0.00 35 1011.1
20260831064504 62 0 0.0 2.0 0.00 0.00 0.00 34 1011.1
20260831064404 62 121 1.0 2.0 0.00 0.00 0.00 33 1011.0
20260831064303 62 130 2.0 2.0 0.00 0.00 0.00 34 1011.1
20260831064203 62 0 0.0 2.0 0.00 0.00 0.00 34 1011.1
20260831064104 62 0 0.0 3.0 0.00 0.00 0.00 34 1011.1
20260831064004 62 0 0.0 4.0 0.00 0.00 0.00 34 1011.1
20260831063904 62 144 1.0 4.0 0.00 0.00 0.00 34 1011.0
20260831063803 62 150 1.0 4.0 0.00 0.00 0.00 34 1011.0
20260831063704 62 154 2.0 4.0 0.00 0.00 0.00 34 1011.1
20260831063604 62 155 1.0 4.0 0.00 0.00 0.00 33 1011.1
20260831063503 62 0 0.0 4.0 0.00 0.00 0.00 33 1011.0
20260831063404 62 0 0.0 4.0 0.00 0.00 0.00 33 1011.0
20260831063304 62 0 0.0 4.0 0.00 0.00 0.00 33 1011.0
20260831063203 62 158 2.0 4.0 0.00 0.00 0.00 33 1010.9
20260831063104 62 161 2.0 4.0 0.00 0.00 0.00 33 1010.9
20260831063004 62 167 2.0 3.0 0.00 0.00 0.00 32 1011.0
20260831062904 62 169 2.0 3.0 0.00 0.00 0.00 32 1011.0
20260831062804 61 168 2.0 3.0 0.00 0.00 0.00 32 1011.0
20260831062703 61 166 2.0 3.0 0.00 0.00 0.00 32 1011.0
20260831062604 61 170 1.0 3.0 0.00 0.00 0.00 32 1011.0
20260831062504 62 172 1.0 3.0 0.00 0.00 0.00 32 1011.1
20260831062404 62 173 2.0 3.0 0.00 0.00 0.00 31 1010.9
20260831062305 62 172 2.0 3.0 0.00 0.00 0.00 31 1011.1
20260831062204 62 173 1.0 3.0 0.00 0.00 0.00 30 1011.1
20260831062103 62 177 2.0 3.0 0.00 0.00 0.00 29 1011.0
20260831062003 62 177 2.0 3.0 0.00 0.00 0.00 28 1011.0
20260831061904 62 0 0.0 2.0 0.00 0.00 0.00 27 1011.0
20260831061804 62 0 0.0 2.0 0.00 0.00 0.00 27 1011.1
20260831061703 63 0 0.0 2.0 0.00 0.00 0.00 27 1011.0
20260831061604 63 0 0.0 2.0 0.00 0.00 0.00 26 1011.0
20260831061504 63 0 0.0 2.0 0.00 0.00 0.00 26 1011.0
20260831061403 63 262 1.0 2.0 0.00 0.00 0.00 26 1011.0
20260831061304 63 0 0.0 2.0 0.00 0.00 0.00 25 1011.0
20260831061204 64 0 0.0 2.0 0.00 0.00 0.00 25 1011.0
20260831061103 64 0 0.0 2.0 0.00 0.00 0.00 24 1011.0
20260831061004 64 0 0.0 2.0 0.00 0.00 0.00 24 1010.9
20260831060904 64 0 0.0 3.0 0.00 0.00 0.00 24 1011.0
20260831060803 64 0 0.0 3.0 0.00 0.00 0.00 24 1010.9
20260831060704 65 261 2.0 3.0 0.00 0.00 0.00 23 1011.0
20260831060604 65 256 2.0 3.0 0.00 0.00 0.00 23 1011.0
20260831060504 65 252 2.0 3.0 0.00 0.00 0.00 23 1010.9
20260831060404 65 247 2.0 3.0 0.00 0.00 0.00 23 1011.0
20260831060303 65 243 2.0 3.0 0.00 0.00 0.00 23 1010.9
20260831060204 65 238 2.0 3.0 0.00 0.00 0.00 23 1010.9
20260831060104 65 238 2.0 3.0 0.00 0.00 0.00 23 1011.0
20260831060004 65 239 2.0 3.0 0.00 0.00 0.00 23 1011.0
20260831055904 65 239 2.0 3.0 0.00 0.00 0.00 22 1011.0
20260831055804 65 234 1.0 3.0 0.00 0.00 0.00 23 1010.9
20260831055704 65 234 1.0 3.0 0.00 0.00 0.00 23 1010.9
20260831055603 64 234 2.0 3.0 0.00 0.00 0.00 23 1010.9
20260831055504 64 234 2.0 3.0 0.00 0.00 0.00 23 1010.9
20260831055404 64 234 2.0 3.0 0.00 0.00 0.00 23 1011.0
20260831055306 64 238 2.0 3.0 0.00 0.00 0.00 23 1011.0
20260831055203 64 237 2.0 3.0 0.00 0.00 0.00 23 1010.9
20260831055104 64 234 2.0 4.0 0.00 0.00 0.00 23 1011.0
20260831055004 64 229 2.0 4.0 0.00 0.00 0.00 23 1011.0
20260831054904 64 229 2.0 4.0 0.00 0.00 0.00 23 1011.0
20260831054804 64 229 2.0 4.0 0.00 0.00 0.00 23 1011.0
20260831054704 64 229 1.0 4.0 0.00 0.00 0.00 22 1011.1
20260831054603 65 229 1.0 4.0 0.00 0.00 0.00 22 1011.0
20260831054504 65 229 2.0 4.0 0.00 0.00 0.00 22 1011.0
20260831054404 65 229 2.0 4.0 0.00 0.00 0.00 22 1011.0
20260831054303 65 225 2.0 4.0 0.00 0.00 0.00 22 1011.0
20260831054204 65 225 2.0 4.0 0.00 0.00 0.00 22 1011.0
20260831054104 65 225 3.0 4.0 0.00 0.00 0.00 22 1011.0
20260831054003 65 232 2.0 3.0 0.00 0.00 0.00 21 1011.0
20260831053903 65 233 1.0 2.0 0.00 0.00 0.00 21 1011.0
20260831053804 65 233 1.0 2.0 0.00 0.00 0.00 21 1011.0
20260831053704 65 0 0.0 2.0 0.00 0.00 0.00 21 1011.0
20260831053603 65 233 1.0 2.0 0.00 0.00 0.00 21 1011.1
20260831053503 65 234 1.0 2.0 0.00 0.00 0.00 21 1011.1
20260831053404 65 235 1.0 2.0 0.00 0.00 0.00 21 1011.0
20260831053304 65 237 1.0 2.0 0.00 0.00 0.00 21 1010.9
20260831053204 65 241 2.0 2.0 0.00 0.00 0.00 21 1011.0
20260831053104 65 246 2.0 2.0 0.00 0.00 0.00 21 1011.0
20260831053003 65 225 1.0 2.0 0.00 0.00 0.00 20 1011.0
20260831052904 66 225 2.0 2.0 0.00 0.00 0.00 21 1011.1
20260831052804 66 0 0.0 2.0 0.00 0.00 0.00 21 1011.1
20260831052704 66 0 0.0 0.0 0.00 0.00 0.00 21 1011.1
20260831052603 66 0 0.0 0.0 0.00 0.00 0.00 21 1011.0
20260831052504 66 0 0.0 1.0 0.00 0.00 0.00 20 1011.1
20260831052404 66 0 0.0 1.0 0.00 0.00 0.00 20 1011.0
20260831052306 67 0 0.0 2.0 0.00 0.00 0.00 19 1011.0
20260831052204 67 0 0.0 3.0 0.00 0.00 0.00 19 1011.0
20260831052104 67 0 0.0 3.0 0.00 0.00 0.00 19 1011.1
20260831052003 67 0 0.0 4.0 0.00 0.00 0.00 19 1011.2
20260831051904 67 0 0.0 4.0 0.00 0.00 0.00 19 1011.1
20260831051804 67 0 0.0 4.0 0.00 0.00 0.00 19 1011.2
20260831051703 67 0 0.0 4.0 0.00 0.00 0.00 19 1011.2
20260831051603 67 0 0.0 4.0 0.00 0.00 0.00 19 1011.2
20260831051504 67 0 0.0 4.0 0.00 0.00 0.00 19 1011.2
20260831051403 67 0 0.0 4.0 0.00 0.00 0.00 19 1011.2
20260831051304 67 1 1.0 4.0 0.00 0.00 0.00 19 1011.2
20260831051204 67 4 1.0 4.0 0.00 0.00 0.00 19 1011.1
20260831051104 67 1 1.0 4.0 0.00 0.00 0.00 19 1011.2
20260831051003 67 1 1.0 4.0 0.00 0.00 0.00 19 1011.2
20260831050904 67 354 2.0 4.0 0.00 0.00 0.00 19 1011.2
20260831050804 67 347 2.0 4.0 0.00 0.00 0.00 19 1011.3
20260831050704 67 342 2.0 4.0 0.00 0.00 0.00 20 1011.2
20260831050604 66 334 2.0 4.0 0.00 0.00 0.00 20 1011.2
20260831050504 66 334 2.0 5.0 0.00 0.00 0.00 20 1011.3
20260831050404 66 328 2.0 5.0 0.00 0.00 0.00 20 1011.3
20260831050304 66 332 2.0 5.0 0.00 0.00 0.00 20 1011.3
20260831050203 66 327 2.0 5.0 0.00 0.00 0.00 20 1011.2
20260831050103 66 320 2.0 5.0 0.00 0.00 0.00 20 1011.3
20260831050004 66 316 2.0 5.0 0.00 0.00 0.00 21 1011.2
20260831045804 66 319 1.0 5.0 0.00 0.00 0.00 21 1011.2
20260831045704 66 323 1.0 5.0 0.00 0.00 0.00 21 1011.2
20260831045604 66 325 2.0 5.0 0.00 0.00 0.00 21 1011.3
20260831045504 65 318 2.0 5.0 0.00 0.00 0.00 21 1011.3
20260831045404 65 317 3.0 5.0 0.00 0.00 0.00 21 1011.3
20260831044703 66 0 0.0 2.0 0.00 0.00 0.00 20 1011.2
20260831044604 66 0 0.0 2.0 0.00 0.00 0.00 20 1011.2
20260831044504 66 0 0.0 2.0 0.00 0.00 0.00 20 1011.3
20260831044404 66 0 0.0 2.0 0.00 0.00 0.00 20 1011.3
20260831044304 66 339 1.0 2.0 0.00 0.00 0.00 20 1011.3
20260831044203 66 346 1.0 2.0 0.00 0.00 0.00 20 1011.2
20260831044104 66 345 1.0 2.0 0.00 0.00 0.00 20 1011.3
20260831044004 66 351 2.0 2.0 0.00 0.00 0.00 20 1011.2
20260831043903 66 1 1.0 2.0 0.00 0.00 0.00 20 1011.3
20260831043803 67 351 1.0 2.0 0.00 0.00 0.00 20 1011.3
20260831043704 67 0 0.0 2.0 0.00 0.00 0.00 18 1011.3
20260831043604 67 0 0.0 2.0 0.00 0.00 0.00 18 1011.2
20260831043504 67 0 0.0 2.0 0.00 0.00 0.00 18 1011.2
20260831043404 67 0 0.0 2.0 0.00 0.00 0.00 18 1011.3
20260831043303 67 0 0.0 2.0 0.00 0.00 0.00 18 1011.2
20260831043004 67 0 0.0 2.0 0.00 0.00 0.00 18 1011.2
20260831042903 68 315 1.0 2.0 0.00 0.00 0.00 18 1011.2
20260831042804 68 0 0.0 2.0 0.00 0.00 0.00 18 1011.2
20260831042704 68 0 0.0 2.0 0.00 0.00 0.00 18 1011.2
20260831042603 68 0 0.0 2.0 0.00 0.00 0.00 18 1011.2
20260831041904 68 311 1.0 3.0 0.00 0.00 0.00 18 1011.2
20260831041804 68 315 1.0 3.0 0.00 0.00 0.00 18 1011.1
20260831041704 68 308 1.0 4.0 0.00 0.00 0.00 18 1011.1
20260831041604 68 304 1.0 4.0 0.00 0.00 0.00 18 1011.2
20260831041504 68 301 1.0 4.0 0.00 0.00 0.00 18 1011.1
20260831041304 68 302 1.0 4.0 0.00 0.00 0.00 18 1011.1
20260831041203 68 308 1.0 4.0 0.00 0.00 0.00 18 1011.1
20260831041104 68 307 2.0 4.0 0.00 0.00 0.00 18 1011.2
20260831041004 68 307 2.0 4.0 0.00 0.00 0.00 18 1011.0
20260831040903 68 307 2.0 4.0 0.00 0.00 0.00 18 1011.1
20260831040804 68 308 2.0 4.0 0.00 0.00 0.00 19 1011.1
20260831040704 68 313 2.0 4.0 0.00 0.00 0.00 19 1011.0
20260831040603 68 321 2.0 4.0 0.00 0.00 0.00 19 1011.1
20260831040503 68 325 2.0 4.0 0.00 0.00 0.00 19 1011.0
20260831040404 68 329 2.0 4.0 0.00 0.00 0.00 19 1011.0
20260831040305 68 327 2.0 4.0 0.00 0.00 0.00 20 1011.0
20260831040203 67 0 0.0 2.0 0.00 0.00 0.00 20 1010.9
20260831040104 67 0 0.0 2.0 0.00 0.00 0.00 20 1011.0
20260831040004 67 319 1.0 2.0 0.00 0.00 0.00 20 1011.0
20260831035904 67 320 1.0 2.0 0.00 0.00 0.00 20 1010.9
20260831035804 67 319 1.0 2.0 0.00 0.00 0.00 20 1010.9
20260831035704 67 317 1.0 2.0 0.00 0.00 0.00 20 1010.9
20260831035103 68 0 0.0 2.0 0.00 0.00 0.00 20 1010.9
20260831035003 68 0 0.0 2.0 0.00 0.00 0.00 19 1010.9
20260831034904 68 0 0.0 2.0 0.00 0.00 0.00 19 1010.9
20260831034804 68 0 0.0 2.0 0.00 0.00 0.00 19 1010.8
20260831034703 68 0 0.0 2.0 0.00 0.00 0.00 19 1010.9
20260831034604 68 0 0.0 2.0 0.00 0.00 0.00 19 1010.8
20260831034504 69 0 0.0 2.0 0.00 0.00 0.00 19 1010.8
20260831034403 69 303 1.0 2.0 0.00 0.00 0.00 18 1010.9
20260831034304 69 0 0.0 2.0 0.00 0.00 0.00 18 1010.7
20260831034204 69 0 0.0 2.0 0.00 0.00 0.00 18 1010.8
20260831034105 69 0 0.0 2.0 0.00 0.00 0.00 18 1010.8
20260831034003 69 0 0.0 2.0 0.00 0.00 0.00 18 1010.8
20260831033904 69 0 0.0 2.0 0.00 0.00 0.00 17 1010.8
20260831033804 69 0 0.0 2.0 0.00 0.00 0.00 17 1010.7
20260831033703 69 0 0.0 2.0 0.00 0.00 0.00 17 1010.7
20260831033604 69 0 0.0 2.0 0.00 0.00 0.00 17 1010.8
20260831033504 69 0 0.0 2.0 0.00 0.00 0.00 17 1010.8
20260831033403 70 0 0.0 2.0 0.00 0.00 0.00 17 1010.8
20260831033304 70 0 0.0 2.0 0.00 0.00 0.00 17 1010.7
20260831033204 70 281 1.0 2.0 0.00 0.00 0.00 17 1010.7
20260831032904 70 272 1.0 2.0 0.00 0.00 0.00 16 1010.7
20260831032804 70 269 1.0 2.0 0.00 0.00 0.00 16 1010.7
20260831032703 70 0 0.0 3.0 0.00 0.00 0.00 16 1010.7
20260831032603 70 0 0.0 4.0 0.00 0.00 0.00 16 1010.6
20260831032504 70 272 1.0 4.0 0.00 0.00 0.00 16 1010.6
20260831032404 70 0 0.0 4.0 0.00 0.00 0.00 16 1010.6
20260831032306 71 276 1.0 4.0 0.00 0.00 0.00 16 1010.6
20260831032204 71 279 1.0 4.0 0.00 0.00 0.00 16 1010.6
20260831032104 71 0 0.0 4.0 0.00 0.00 0.00 16 1010.5
20260831032003 71 0 0.0 4.0 0.00 0.00 0.00 16 1010.6
20260831031904 71 301 1.0 4.0 0.00 0.00 0.00 16 1010.6
20260831031804 71 304 1.0 4.0 0.00 0.00 0.00 16 1010.5
20260831031703 71 309 2.0 4.0 0.00 0.00 0.00 16 1010.5
20260831031603 71 311 1.0 2.0 0.00 0.00 0.00 15 1010.5
20260831031504 71 0 0.0 2.0 0.00 0.00 0.00 15 1010.5
20260831031404 71 0 0.0 2.0 0.00 0.00 0.00 15 1010.5
20260831031303 72 0 0.0 2.0 0.00 0.00 0.00 15 1010.5
20260831031204 72 0 0.0 2.0 0.00 0.00 0.00 15 1010.6
20260831031104 72 0 0.0 2.0 0.00 0.00 0.00 15 1010.4
20260831031003 72 311 1.0 2.0 0.00 0.00 0.00 14 1010.5
20260831030904 72 261 1.0 2.0 0.00 0.00 0.00 14 1010.4
20260831030803 72 0 0.0 1.0 0.00 0.00 0.00 14 1010.3
20260831030704 74 0 0.0 1.0 0.00 0.00 0.00 13 1010.4
20260831030604 74 0 0.0 2.0 0.00 0.00 0.00 13 1010.3
20260831030504 74 0 0.0 2.0 0.00 0.00 0.00 13 1010.3
20260831030403 74 0 0.0 2.0 0.00 0.00 0.00 13 1010.3
20260831030303 74 0 0.0 2.0 0.00 0.00 0.00 13 1010.4
20260831030204 74 0 0.0 2.0 0.00 0.00 0.00 13 1010.3
20260831030104 74 0 0.0 2.0 0.00 0.00 0.00 13 1010.2
20260831030003 74 0 0.0 2.0 0.00 0.00 0.00 13 1010.1
20260831025904 74 0 0.0 2.0 0.00 0.00 0.00 12 1010.2
20260831025804 74 0 0.0 2.0 0.00 0.00 0.00 12 1010.1
20260831025704 74 0 0.0 2.0 0.00 0.00 0.00 12 1010.1
20260831025604 75 0 0.0 3.0 0.00 0.00 0.00 12 1010.1
20260831025503 75 0 0.0 3.0 0.00 0.00 0.00 11 1010.1
20260831025403 75 0 0.0 3.0 0.00 0.00 0.00 11 1010.1
20260831025306 75 0 0.0 3.0 0.00 0.00 0.00 11 1010.1
20260831025203 76 0 0.0 3.0 0.00 0.00 0.00 10 1010.1
20260831025103 76 0 0.0 3.0 0.00 0.00 0.00 10 1010.1
20260831025004 76 0 0.0 3.0 0.00 0.00 0.00 10 1010.1
20260831024904 76 0 0.0 3.0 0.00 0.00 0.00 10 1010.1
20260831024803 77 0 0.0 3.0 0.00 0.00 0.00 10 1010.1
20260831024703 77 320 1.0 4.0 0.00 0.00 0.00 10 1010.1
20260831024604 77 326 2.0 4.0 0.00 0.00 0.00 10 1010.1
20260831024504 77 0 0.0 4.0 0.00 0.00 0.00 10 1010.0
20260831024403 78 0 0.0 4.0 0.00 0.00 0.00 10 1010.0
20260831024303 78 0 0.0 4.0 0.00 0.00 0.00 10 1009.9
20260831024204 78 0 0.0 4.0 0.00 0.00 0.00 10 1010.0
20260831024103 78 0 0.0 4.0 0.00 0.00 0.00 10 1009.9
20260831024003 78 0 0.0 4.0 0.00 0.00 0.00 10 1009.9
20260831023904 78 0 0.0 4.0 0.00 0.00 0.00 10 1009.9
20260831023804 78 323 1.0 4.0 0.00 0.00 0.00 10 1009.9
20260831023704 79 327 2.0 4.0 0.00 0.00 0.00 10 1009.9
20260831023603 79 336 2.0 4.0 0.00 0.00 0.00 10 1009.9
20260831023503 79 343 2.0 5.0 0.00 0.00 0.00 10 1009.8
20260831023404 79 352 2.0 5.0 0.00 0.00 0.00 10 1009.9
20260831023304 79 357 2.0 5.0 0.00 0.00 0.00 10 1009.8
20260831022703 79 21 2.0 5.0 0.00 0.00 0.00 10 1009.7
20260831022604 79 24 3.0 5.0 0.00 0.00 0.00 10 1009.8
20260831022504 79 26 2.0 5.0 0.00 0.00 0.00 10 1009.8
20260831022403 79 24 2.0 5.0 0.00 0.00 0.00 10 1009.8
20260831022306 80 28 2.0 5.0 0.00 0.00 0.00 10 1009.8
20260831022204 80 34 2.0 5.0 0.00 0.00 0.00 10 1009.8
20260831022103 80 36 2.0 5.0 0.00 0.00 0.00 10 1009.8
20260831022004 80 41 2.0 4.0 0.00 0.00 0.00 10 1009.7
20260831021903 80 41 1.0 4.0 0.00 0.00 0.00 10 1009.8
20260831021803 80 41 2.0 5.0 0.00 0.00 0.00 10 1009.7
20260831021704 80 40 2.0 6.0 0.00 0.00 0.00 10 1009.7
20260831021604 81 29 2.0 7.0 0.00 0.00 0.00 10 1009.7
20260831021503 81 24 2.0 8.0 0.00 0.00 0.00 10 1009.7
20260831021404 81 23 2.0 8.0 0.00 0.00 0.00 10 1009.8
20260831021304 81 13 2.0 8.0 0.00 0.00 0.00 10 1009.8
20260831021203 81 17 2.0 8.0 0.00 0.00 0.00 10 1009.7
20260831021103 81 19 2.0 8.0 0.00 0.00 0.00 10 1009.7
20260831021004 82 20 2.0 8.0 0.00 0.00 0.00 10 1009.7
20260831020903 82 21 2.0 8.0 0.00 0.00 0.00 10 1009.8
20260831020803 82 23 4.0 8.0 0.00 0.00 0.00 10 1009.7
20260831020704 82 24 3.0 8.0 0.00 0.00 0.00 10 1009.7
20260831020604 82 31 5.0 8.0 0.00 0.00 0.00 10 1009.7
20260831020503 82 37 4.0 8.0 0.00 0.00 0.00 10 1009.7
20260831020404 83 42 5.0 8.0 0.00 0.00 0.00 10 1009.7
20260831020304 83 49 6.0 8.0 0.00 0.00 0.00 10 1009.6
20260831020203 83 53 5.0 8.0 0.00 0.00 0.00 10 1009.6
20260831020104 83 53 5.0 8.0 0.00 0.00 0.00 10 1009.5
20260831020004 84 48 4.0 8.0 0.00 0.00 0.00 10 1009.6
20260831015404 85 21 5.0 8.0 0.00 0.00 0.00 10 1009.6
20260831014804 85 329 2.0 8.0 0.00 0.00 0.00 10 1009.6
20260831014703 85 326 2.0 8.0 0.00 0.00 0.00 10 1009.6
20260831014604 86 327 2.0 8.0 0.00 0.00 0.00 10 1009.6
20260831014503 86 326 2.0 8.0 0.00 0.00 0.00 10 1009.7
20260831014404 86 325 3.0 8.0 0.00 0.00 0.00 10 1009.7
20260831014305 86 328 2.0 8.0 0.00 0.00 0.00 10 1009.6
20260831014203 86 328 2.0 8.0 0.00 0.00 0.00 10 1009.7
20260831014103 86 336 2.0 8.0 0.00 0.00 0.00 10 1009.7
20260831014004 86 345 4.0 8.0 0.00 0.00 0.00 10 1009.7
20260831013904 86 349 3.0 6.0 0.00 0.00 0.00 10 1009.7
20260831013804 86 359 3.0 6.0 0.00 0.00 0.00 10 1009.6
20260831013704 86 5 3.0 6.0 0.00 0.00 0.00 10 1009.7
20260831013603 86 6 3.0 7.0 0.00 0.00 0.00 10 1009.7
20260831013503 86 9 3.0 7.0 0.00 0.00 0.00 10 1009.6
20260831013404 86 9 2.0 7.0 0.00 0.00 0.00 10 1009.6
20260831013304 86 7 2.0 7.0 0.00 0.00 0.00 10 1009.6
20260831013203 86 5 3.0 7.0 0.00 0.00 0.00 10 1009.6
20260831012704 86 346 4.0 7.0 0.00 0.00 0.00 10 1009.6
20260831012604 87 345 2.0 7.0 0.00 0.00 0.00 10 1009.7
20260831012503 87 349 2.0 7.0 0.00 0.00 0.00 10 1009.6
20260831012404 87 353 2.0 7.0 0.00 0.00 0.00 10 1009.5
20260831012306 87 354 4.0 7.0 0.00 0.00 0.00 10 1009.6
20260831012204 87 359 3.0 7.0 0.00 0.00 0.00 10 1009.6
20260831012104 87 355 4.0 7.0 0.00 0.00 0.00 10 1009.6
20260831012003 87 346 4.0 7.0 0.00 0.00 0.00 10 1009.6
20260831011904 87 354 2.0 6.0 0.00 0.00 0.00 10 1009.5
20260831011804 87 354 3.0 6.0 0.00 0.00 0.00 10 1009.7
20260831011703 87 340 3.0 6.0 0.00 0.00 0.00 10 1009.6
20260831011604 87 0 0.0 8.0 0.00 0.00 0.00 10 1009.8
20260831011503 87 339 3.0 8.0 0.00 0.00 0.00 10 1009.6
20260831011403 87 338 3.0 8.0 0.00 0.00 0.00 10 1009.6
20260831011304 87 341 2.0 8.0 0.00 0.00 0.00 10 1009.8
20260831011204 87 351 1.0 10.0 0.00 0.00 0.00 10 1009.8
20260831011103 87 354 2.0 10.0 0.00 0.00 0.00 10 1009.7
20260831011004 87 1 1.0 10.0 0.00 0.00 0.00 10 1009.7
20260831010904 87 0 0.0 10.0 0.00 0.00 0.00 10 1009.7
20260831010803 87 356 4.0 10.0 0.00 0.00 0.00 10 1009.7
20260831010704 87 357 4.0 10.0 0.00 0.00 0.00 10 1009.7
20260831010603 87 354 4.0 10.0 0.00 0.00 0.00 10 1009.7
20260831010504 87 359 3.0 10.0 0.00 0.00 0.00 10 1009.6
20260831010404 87 356 5.0 11.0 0.00 0.00 0.00 10 1009.7
20260831010303 87 352 7.0 11.0 0.00 0.00 0.00 10 1009.6
20260831010204 87 344 6.0 11.0 0.00 0.00 0.00 10 1009.7
20260831005604 87 24 7.0 12.0 0.00 0.00 0.00 10 1009.7
20260831005503 87 27 6.0 12.0 0.00 0.00 0.00 10 1009.7
20260831005404 87 48 5.0 12.0 0.00 0.00 0.00 10 1009.7
20260831005306 87 54 4.0 12.0 0.00 0.00 0.00 10 1009.7
20260831005204 87 57 3.0 12.0 0.00 0.00 0.00 10 1009.7
20260831005104 87 57 4.0 12.0 0.00 0.00 0.00 10 1009.7
20260831005003 87 61 5.0 12.0 0.00 0.00 0.00 10 1009.6
20260831004904 87 58 7.0 12.0 0.00 0.00 0.00 10 1009.6
20260831004804 87 52 2.0 9.0 0.00 0.00 0.00 10 1009.7
20260831004703 87 49 3.0 9.0 0.00 0.00 0.00 10 1009.6
20260831004604 88 42 4.0 9.0 0.00 0.00 0.00 10 1009.6
20260831004503 88 26 4.0 9.0 0.00 0.00 0.00 10 1009.7
20260831004404 88 6 4.0 8.0 0.00 0.00 0.00 10 1009.5
20260831004304 88 355 4.0 8.0 0.00 0.00 0.00 10 1009.7
20260831004203 88 351 6.0 8.0 0.00 0.00 0.00 10 1009.6
20260831004104 88 353 4.0 8.0 0.00 0.00 0.00 10 1009.6
20260831004004 88 358 2.0 8.0 0.00 0.00 0.00 10 1009.6
20260831003903 88 5 2.0 9.0 0.00 0.00 0.00 10 1009.6
20260831003804 88 1 4.0 10.0 0.00 0.00 0.00 10 1009.7
20260831003703 88 7 3.0 10.0 0.00 0.00 0.00 10 1009.6
20260831003603 88 12 4.0 10.0 0.00 0.00 0.00 10 1009.6
20260831003504 88 20 4.0 10.0 0.00 0.00 0.00 10 1009.6
20260831003303 87 35 5.0 10.0 0.00 0.00 0.00 10 1009.7
20260831003203 88 37 4.0 10.0 0.00 0.00 0.00 10 1009.7
20260831003104 88 42 4.0 11.0 0.00 0.00 0.00 10 1009.7
20260831003003 88 47 4.0 13.0 0.00 0.00 0.00 10 1009.7
20260831002904 87 47 5.0 13.0 0.00 0.00 0.00 10 1009.7
20260831002203 88 50 5.0 13.0 0.00 0.00 0.00 10 1009.5
20260831002104 88 43 7.0 13.0 0.00 0.00 0.00 10 1009.8
20260831002004 88 42 8.0 13.0 0.00 0.00 0.00 10 1009.8
20260831001903 88 45 6.0 11.0 0.00 0.00 0.00 10 1009.7
20260831001804 88 48 7.0 11.0 0.00 0.00 0.00 10 1009.7
20260831001704 88 56 4.0 10.0 0.00 0.00 0.00 10 1009.5
20260831001603 88 56 4.0 10.0 0.00 0.00 0.00 10 1009.6
20260831001504 88 57 2.0 10.0 0.00 0.00 0.00 10 1009.7
20260831001403 88 49 6.0 10.0 0.00 0.00 0.00 10 1009.7
20260831001303 88 40 5.0 10.0 0.00 0.00 0.00 10 1009.7
20260831001203 88 33 4.0 9.0 0.00 0.00 0.00 10 1009.6
20260831001105 88 35 3.0 9.0 0.00 0.00 0.00 10 1009.6
20260831001004 88 27 2.0 9.0 0.00 0.00 0.00 10 1009.7
20260831000903 89 29 3.0 9.0 0.00 0.00 0.00 10 1009.7
20260831000803 89 20 7.0 9.0 0.00 0.00 0.00 10 1009.6
20260831000703 89 10 3.0 9.0 0.00 0.00 0.00 10 1009.7
20260831000603 89 13 4.0 9.0 0.00 0.00 0.00 10 1009.6
20260831000504 89 20 3.0 9.0 0.00 0.00 0.00 10 1009.7
20260831000406 89 29 4.0 9.0 0.00 0.00 0.00 10 1009.7
20260831000306 89 49 4.0 9.0 0.00 0.00 0.00 10 1009.6
20260831000207 89 52 5.0 9.0 0.00 0.00 0.00 10 1009.7
20260831000107 89 59 3.0 5.0 0.00 0.00 0.00 10 1009.6
20260831000007 89 51 3.0 5.0 0.00 0.00 0.00 10 1009.7
20260830235907 89 0 0.0 5.0 0.00 0.00 0.00 10 1009.8
20260830235807 89 3 1.0 5.0 0.00 0.00 0.00 10 1009.7
20260830235706 89 300 1.0 5.0 0.00 0.00 0.00 10 1009.7
20260830235606 89 265 3.0 5.0 0.00 0.00 0.00 10 1009.7
20260830235507 89 262 2.0 5.0 0.00 0.00 0.00 10 1009.7
20260830235407 88 250 2.0 5.0 0.00 0.00 0.00 10 1009.7
20260830235306 88 255 2.0 5.0 0.00 0.00 0.00 10 1009.7
20260830235206 88 254 3.0 6.0 0.00 0.00 0.00 10 1009.7
20260830235107 88 262 2.0 7.0 0.00 0.00 0.00 10 1009.6
20260830235007 88 276 2.0 8.0 0.00 0.00 0.00 10 1009.7
20260830234906 88 313 2.0 11.0 0.00 0.00 0.00 10 1009.6
20260830234807 88 311 3.0 11.0 0.00 0.00 0.00 10 1009.6
20260830234707 88 318 2.0 11.0 0.00 0.00 0.00 10 1009.7
20260830234607 88 0 0.0 11.0 0.00 0.00 0.00 10 1009.7
20260830234507 88 0 0.0 11.0 0.00 0.00 0.00 10 1009.7
20260830234407 88 323 1.0 11.0 0.00 0.00 0.00 10 1009.7
20260830234307 88 327 1.0 11.0 0.00 0.00 0.00 10 1009.7
20260830234206 88 336 3.0 11.0 0.00 0.00 0.00 10 1009.8
20260830234107 88 345 4.0 11.0 0.00 0.00 0.00 10 1009.8
20260830234007 88 346 5.0 11.0 0.00 0.00 0.00 10 1009.7
20260830233907 89 334 5.0 11.0 0.00 0.00 0.00 10 1009.8
20260830233806 89 347 5.0 8.0 0.00 0.00 0.00 10 1009.8
20260830233707 89 348 5.0 8.0 0.00 0.00 0.00 10 1009.7
20260830233607 89 359 4.0 8.0 0.00 0.00 0.00 10 1009.7
20260830233506 89 5 4.0 8.0 0.00 0.00 0.00 10 1009.8
20260830233407 89 30 4.0 9.0 0.00 0.00 0.00 10 1009.7
20260830233307 89 23 3.0 9.0 0.00 0.00 0.00 10 1009.8
20260830233207 89 7 4.0 9.0 0.00 0.00 0.00 10 1009.6
20260830233107 89 0 0.0 9.0 0.00 0.00 0.00 10 1009.7
20260830233007 89 0 0.0 9.0 0.00 0.00 0.00 10 1009.7
20260830232907 89 323 1.0 9.0 0.00 0.00 0.00 10 1009.8
20260830232706 89 343 2.0 9.0 0.00 0.00 0.00 10 1009.7
20260830232607 89 12 3.0 9.0 0.00 0.00 0.00 10 1009.7
20260830232507 89 18 4.0 9.0 0.00 0.00 0.00 10 1009.7
20260830232406 89 348 5.0 9.0 0.00 0.00 0.00 10 1009.8
20260830232207 89 354 2.0 9.0 0.00 0.00 0.00 10 1009.9
20260830232107 89 17 3.0 9.0 0.00 0.00 0.00 10 1009.8
20260830232007 89 47 2.0 9.0 0.00 0.00 0.00 10 1009.8
20260830231906 89 44 2.0 9.0 0.00 0.00 0.00 10 1009.9
20260830231807 89 34 3.0 9.0 0.00 0.00 0.00 10 1009.9
20260830231706 89 22 5.0 9.0 0.00 0.00 0.00 10 1009.8
20260830231607 89 7 1.0 7.0 0.00 0.00 0.00 10 1009.9
20260830231507 89 357 1.0 7.0 0.00 0.00 0.00 10 1009.9
20260830231406 89 2 2.0 7.0 0.00 0.00 0.00 10 1009.9
20260830231307 89 357 1.0 7.0 0.00 0.00 0.00 10 1009.8
20260830231206 89 350 4.0 7.0 0.00 0.00 0.00 10 1009.9
20260830231106 89 351 3.0 14.0 0.00 0.00 0.00 10 1009.9
20260830231007 89 5 3.0 14.0 0.00 0.00 0.00 10 1009.9
20260830230907 89 359 1.0 14.0 0.00 0.00 0.00 10 1009.9
20260830230806 89 355 2.0 14.0 0.00 0.00 0.00 10 1009.9
20260830230607 89 353 3.0 14.0 0.00 0.00 0.00 10 1009.8
20260830230507 89 351 2.0 14.0 0.00 0.00 0.00 10 1010.0
20260830230406 89 348 1.0 14.0 0.00 0.00 0.00 10 1009.9
20260830230307 89 351 2.0 14.0 0.00 0.00 0.00 10 1009.9
20260830230207 89 355 3.0 14.0 0.00 0.00 0.00 10 1010.0
20260830230106 89 347 7.0 14.0 0.00 0.00 0.00 10 1010.0
20260830230006 89 322 7.0 14.0 0.00 0.00 0.00 10 1009.9
20260830225907 89 309 2.0 10.0 0.00 0.00 0.00 10 1010.0
20260830225807 89 312 2.0 10.0 0.00 0.00 0.00 10 1010.0
20260830225706 89 317 2.0 10.0 0.00 0.00 0.00 10 1010.0
20260830225607 89 319 2.0 10.0 0.00 0.00 0.00 10 1010.1
20260830225507 89 315 3.0 10.0 0.00 0.00 0.00 10 1010.0
20260830225407 89 308 2.0 10.0 0.00 0.00 0.00 10 1010.0
20260830225307 88 0 0.0 10.0 0.00 0.00 0.00 10 1010.1
20260830225207 88 284 3.0 10.0 0.00 0.00 0.00 10 1010.0
20260830225108 88 275 4.0 10.0 0.00 0.00 0.00 10 1010.0
20260830225007 88 271 4.0 10.0 0.00 0.00 0.00 10 1010.1
20260830224907 88 262 4.0 8.0 0.00 0.00 0.00 10 1010.2
20260830224807 88 254 5.0 11.0 0.00 0.00 0.00 10 1010.1
20260830224707 87 253 1.0 11.0 0.00 0.00 0.00 10 1010.3
20260830224507 87 269 2.0 11.0 0.00 0.00 0.00 10 1010.2
20260830224407 87 279 1.0 11.0 0.00 0.00 0.00 10 1010.2
20260830224306 87 294 3.0 11.0 0.00 0.00 0.00 10 1010.4
20260830224207 87 313 2.0 11.0 0.00 0.00 0.00 10 1010.3
20260830224106 87 328 2.0 11.0 0.00 0.00 0.00 10 1010.4
20260830224006 87 338 2.0 11.0 0.00 0.00 0.00 10 1010.5
20260830223907 88 350 8.0 11.0 0.00 0.00 0.00 10 1010.4
20260830223807 88 11 2.0 15.0 0.00 0.00 0.00 10 1010.4
20260830223706 88 21 3.0 15.0 0.00 0.00 0.00 10 1010.4
20260830223607 88 14 5.0 15.0 0.00 0.00 0.00 10 1010.3
20260830223507 88 12 3.0 15.0 0.00 0.00 0.00 10 1010.3
20260830223406 88 5 2.0 15.0 0.00 0.00 0.00 10 1010.3
20260830223307 88 2 2.0 15.0 0.00 0.00 0.00 10 1010.3
20260830223207 88 356 4.0 15.0 0.00 0.00 0.00 10 1010.4
20260830223106 88 2 4.0 15.0 0.00 0.00 0.00 10 1010.5
20260830223006 88 11 4.0 15.0 0.00 0.00 0.00 10 1010.4
20260830222907 88 12 6.0 15.0 0.00 0.00 0.00 10 1010.4
20260830222807 88 7 9.0 15.0 0.00 0.00 0.00 10 1010.5
20260830222707 88 351 5.0 9.0 0.00 0.00 0.00 10 1010.3
20260830222607 88 10 4.0 8.0 0.00 0.00 0.00 10 1010.4
20260830222507 88 14 2.0 8.0 0.00 0.00 0.00 10 1010.4
20260830222406 88 18 4.0 8.0 0.00 0.00 0.00 10 1010.5
20260830222307 88 15 2.0 8.0 0.00 0.00 0.00 10 1010.4
20260830222207 88 20 2.0 8.0 0.00 0.00 0.00 10 1010.5
20260830222106 88 11 4.0 8.0 0.00 0.00 0.00 10 1010.5
20260830222006 88 358 5.0 8.0 0.00 0.00 0.00 10 1010.6
20260830221907 88 0 0.0 8.0 0.00 0.00 0.00 10 1010.6
20260830221407 88 259 4.0 7.0 0.00 0.00 0.00 10 1010.7
20260830220807 88 208 3.0 7.0 0.00 0.00 0.00 10 1010.7
20260830220707 88 209 2.0 7.0 0.00 0.00 0.00 10 1010.7
20260830220606 88 205 2.0 7.0 0.00 0.00 0.00 10 1010.8
20260830220506 88 201 1.0 7.0 0.00 0.00 0.00 10 1010.7
20260830220407 87 218 2.0 7.0 0.00 0.00 0.00 10 1010.8
20260830220307 87 231 3.0 7.0 0.00 0.00 0.00 10 1010.9
20260830220206 87 299 4.0 8.0 0.00 0.00 0.00 10 1010.9
20260830220107 88 320 5.0 8.0 0.00 0.00 0.00 10 1011.0
20260830220007 88 341 5.0 8.0 0.00 0.00 0.00 10 1010.8
20260830215907 88 344 1.0 8.0 0.00 0.00 0.00 10 1010.9
20260830215807 88 335 2.0 8.0 0.00 0.00 0.00 10 1010.9
20260830215707 88 337 2.0 11.0 0.00 0.00 0.00 10 1010.9
20260830215607 88 325 1.0 11.0 0.00 0.00 0.00 10 1010.9
20260830215507 88 320 1.0 11.0 0.00 0.00 0.00 10 1010.9
20260830215407 88 326 2.0 11.0 0.00 0.00 0.00 10 1011.0
20260830215307 88 331 2.0 11.0 0.00 0.00 0.00 10 1011.1
20260830215208 88 334 4.0 11.0 0.00 0.00 0.00 10 1011.0
20260830215107 88 340 4.0 11.0 0.00 0.00 0.00 10 1011.0
20260830215006 88 339 4.0 11.0 0.00 0.00 0.00 10 1011.1
20260830214906 87 352 3.0 11.0 0.00 0.00 0.00 10 1011.0
20260830214807 87 3 4.0 11.0 0.00 0.00 0.00 10 1011.1
20260830214707 87 7 4.0 10.0 0.00 0.00 0.00 10 1011.1
20260830214607 87 7 7.0 10.0 0.00 0.00 0.00 10 1011.1
20260830214507 87 9 7.0 10.0 0.00 0.00 0.00 10 1011.0
20260830214406 87 13 5.0 10.0 0.00 0.00 0.00 10 1011.2
20260830214307 87 17 3.0 10.0 0.00 0.00 0.00 10 1011.2
20260830214207 87 2 3.0 10.0 0.00 0.00 0.00 10 1011.2
20260830214107 87 340 2.0 10.0 0.00 0.00 0.00 10 1011.2
20260830214007 87 337 1.0 10.0 0.00 0.00 0.00 10 1011.2
20260830213907 87 309 4.0 10.0 0.00 0.00 0.00 10 1011.3
20260830213806 87 304 4.0 10.0 0.00 0.00 0.00 10 1011.2
20260830213707 87 300 4.0 10.0 0.00 0.00 0.00 10 1011.3
20260830213607 87 302 5.0 10.0 0.00 0.00 0.00 10 1011.2
20260830213106 87 335 3.0 10.0 0.00 0.00 0.00 10 1011.3
20260830212406 86 72 3.0 9.0 0.00 0.00 0.00 10 1011.3
20260830212306 86 78 2.0 9.0 0.00 0.00 0.00 10 1011.3
20260830212207 86 80 2.0 9.0 0.00 0.00 0.00 10 1011.4
20260830212107 86 84 1.0 9.0 0.00 0.00 0.00 10 1011.4
20260830212006 86 82 3.0 9.0 0.00 0.00 0.00 10 1011.4
20260830211907 86 74 4.0 9.0 0.00 0.00 0.00 10 1011.5
20260830211807 86 60 1.0 8.0 0.00 0.00 0.00 10 1011.5
20260830211706 86 48 1.0 8.0 0.00 0.00 0.00 10 1011.5
20260830211607 86 40 4.0 8.0 0.00 0.00 0.00 10 1011.4
20260830211507 86 30 4.0 8.0 0.00 0.00 0.00 10 1011.5
20260830211406 86 356 5.0 8.0 0.00 0.00 0.00 10 1011.5
20260830211307 86 295 4.0 5.0 0.00 0.00 0.00 10 1011.6
20260830211207 86 291 2.0 4.0 0.00 0.00 0.00 10 1011.5
20260830211106 86 295 2.0 7.0 0.00 0.00 0.00 10 1011.5
20260830211007 86 263 1.0 7.0 0.00 0.00 0.00 10 1011.6
20260830210907 85 0 0.0 8.0 0.00 0.00 0.00 10 1011.5
20260830210806 85 221 1.0 9.0 0.00 0.00 0.00 10 1011.5
20260830210706 85 206 2.0 9.0 0.00 0.00 0.00 10 1011.5
20260830210607 85 205 1.0 9.0 0.00 0.00 0.00 10 1011.6
20260830210507 85 208 1.0 9.0 0.00 0.00 0.00 10 1011.6
20260830210406 85 210 2.0 9.0 0.00 0.00 0.00 10 1011.7
20260830210307 84 216 1.0 9.0 0.00 0.00 0.00 10 1011.7
20260830210207 84 221 2.0 9.0 0.00 0.00 0.00 10 1011.7
20260830210106 84 227 4.0 11.0 0.00 0.00 0.00 10 1011.7
20260830210007 84 227 4.0 11.0 0.00 0.00 0.00 10 1011.7
20260830205906 84 227 4.0 11.0 0.00 0.00 0.00 10 1011.7
20260830205807 84 233 4.0 11.0 0.00 0.00 0.00 10 1011.6
20260830205707 84 242 3.0 11.0 0.00 0.00 0.00 10 1011.7
20260830205606 84 247 4.0 11.0 0.00 0.00 0.00 10 1011.7
20260830205506 84 248 3.0 11.0 0.00 0.00 0.00 10 1011.8
20260830205407 84 250 2.0 11.0 0.00 0.00 0.00 10 1011.7
20260830205308 84 254 3.0 11.0 0.00 0.00 0.00 10 1011.6
20260830204806 84 293 8.0 11.0 0.00 0.00 0.00 10 1011.7
20260830204706 84 313 4.0 8.0 0.00 0.00 0.00 10 1011.8
20260830204607 84 340 2.0 8.0 0.00 0.00 0.00 10 1011.9
20260830204506 84 5 2.0 8.0 0.00 0.00 0.00 10 1011.8
20260830204406 85 21 2.0 8.0 0.00 0.00 0.00 10 1011.8
20260830204307 85 30 3.0 8.0 0.00 0.00 0.00 10 1011.9
20260830204207 85 35 2.0 9.0 0.00 0.00 0.00 10 1012.0
20260830204106 85 31 2.0 11.0 0.00 0.00 0.00 10 1011.9
20260830204007 85 34 1.0 11.0 0.00 0.00 0.00 10 1011.9
20260830203907 84 35 1.0 11.0 0.00 0.00 0.00 10 1011.9
20260830203807 84 37 4.0 11.0 0.00 0.00 0.00 10 1012.0
20260830203706 84 34 3.0 11.0 0.00 0.00 0.00 10 1011.9
20260830203607 84 33 6.0 11.0 0.00 0.00 0.00 10 1011.9
20260830203507 84 33 3.0 11.0 0.00 0.00 0.00 10 1012.0
20260830203406 84 35 5.0 11.0 0.00 0.00 0.00 10 1012.0
20260830203306 84 37 4.0 11.0 0.00 0.00 0.00 10 1012.0
20260830203208 84 39 5.0 11.0 0.00 0.00 0.00 10 1012.0
20260830203107 84 47 1.0 11.0 0.00 0.00 0.00 10 1011.9
20260830203006 84 42 1.0 11.0 0.00 0.00 0.00 10 1012.0
20260830202907 84 35 2.0 11.0 0.00 0.00 0.00 10 1012.0
20260830202807 84 31 3.0 11.0 0.00 0.00 0.00 10 1012.0
20260830202707 84 35 6.0 11.0 0.00 0.00 0.00 10 1012.1
20260830202607 84 25 2.0 8.0 0.00 0.00 0.00 10 1012.0
20260830201906 83 330 2.0 7.0 0.00 0.00 0.00 10 1012.1
20260830201806 83 336 3.0 7.0 0.00 0.00 0.00 10 1012.0
20260830201707 83 339 2.0 7.0 0.00 0.00 0.00 10 1012.1
20260830201607 83 342 4.0 7.0 0.00 0.00 0.00 10 1012.0
20260830201506 83 346 4.0 7.0 0.00 0.00 0.00 10 1012.1
20260830201307 83 338 2.0 8.0 0.00 0.00 0.00 10 1012.2
20260830201206 83 325 2.0 8.0 0.00 0.00 0.00 10 1012.2
20260830201106 83 320 3.0 8.0 0.00 0.00 0.00 10 1012.2
20260830201006 83 329 4.0 8.0 0.00 0.00 0.00 10 1012.1
20260830200907 83 333 3.0 8.0 0.00 0.00 0.00 10 1012.0
20260830200806 83 337 2.0 8.0 0.00 0.00 0.00 10 1012.1
20260830200706 83 332 2.0 8.0 0.00 0.00 0.00 10 1012.0
20260830200607 83 337 4.0 8.0 0.00 0.00 0.00 10 1012.1
20260830200507 83 347 4.0 8.0 0.00 0.00 0.00 10 1012.1
20260830200406 83 351 5.0 8.0 0.00 0.00 0.00 10 1012.1
20260830200307 83 356 4.0 7.0 0.00 0.00 0.00 10 1012.3
20260830200206 83 4 3.0 10.0 0.00 0.00 0.00 10 1012.2
20260830200106 83 7 4.0 10.0 0.00 0.00 0.00 10 1012.2
20260830200007 83 8 4.0 10.0 0.00 0.00 0.00 10 1012.2
20260830195907 83 8 2.0 10.0 0.00 0.00 0.00 10 1012.3
20260830195807 83 354 4.0 10.0 0.00 0.00 0.00 10 1012.2
20260830195707 83 343 3.0 10.0 0.00 0.00 0.00 10 1012.3
20260830195607 83 347 2.0 10.0 0.00 0.00 0.00 10 1012.3
20260830195506 83 353 4.0 10.0 0.00 0.00 0.00 10 1012.3
20260830195406 83 358 3.0 10.0 0.00 0.00 0.00 10 1012.4
20260830195307 82 348 4.0 10.0 0.00 0.00 0.00 10 1012.3
20260830195207 82 359 5.0 10.0 0.00 0.00 0.00 10 1012.3
20260830195106 82 5 2.0 9.0 0.00 0.00 0.00 10 1012.4
20260830195007 82 4 3.0 9.0 0.00 0.00 0.00 10 1012.3
20260830194907 82 11 3.0 9.0 0.00 0.00 0.00 10 1012.4
20260830194806 82 17 3.0 9.0 0.00 0.00 0.00 10 1012.4
20260830194707 82 28 1.0 9.0 0.00 0.00 0.00 10 1012.4
20260830194607 82 27 2.0 9.0 0.00 0.00 0.00 10 1012.4
20260830194506 82 23 2.0 9.0 0.00 0.00 0.00 10 1012.5
20260830194406 82 30 4.0 10.0 0.00 0.00 0.00 10 1012.4
20260830194307 82 42 4.0 10.0 0.00 0.00 0.00 10 1012.4
20260830194207 82 43 4.0 10.0 0.00 0.00 0.00 10 1012.5
20260830194106 82 46 6.0 10.0 0.00 0.00 0.00 10 1012.4
20260830194006 82 63 2.0 10.0 0.00 0.00 0.00 10 1012.4
20260830193807 81 100 3.0 10.0 0.00 0.00 0.00 10 1012.5
20260830193206 81 219 1.0 8.0 0.00 0.00 0.00 10 1012.6
20260830193107 81 114 3.0 8.0 0.00 0.00 0.00 10 1012.6
20260830193007 81 3 3.0 8.0 0.00 0.00 0.00 10 1012.6
20260830192907 81 6 4.0 8.0 0.00 0.00 0.00 10 1012.6
20260830192807 81 17 2.0 7.0 0.00 0.00 0.00 10 1012.5
20260830192707 81 27 3.0 7.0 0.00 0.00 0.00 10 1012.6
20260830192607 81 46 2.0 8.0 0.00 0.00 0.00 10 1012.7
20260830192506 81 50 2.0 8.0 0.00 0.00 0.00 10 1012.7
20260830192407 81 52 2.0 9.0 0.00 0.00 0.00 10 1012.6
20260830192307 81 44 2.0 9.0 0.00 0.00 0.00 10 1012.6
20260830192207 81 53 2.0 9.0 0.00 0.00 0.00 10 1012.8
20260830192107 81 58 2.0 9.0 0.00 0.00 0.00 10 1012.7
20260830192006 81 0 0.0 9.0 0.00 0.00 0.00 10 1012.8
20260830191906 81 60 1.0 9.0 0.00 0.00 0.00 10 1012.7
20260830191806 81 55 2.0 9.0 0.00 0.00 0.00 10 1012.8
20260830191707 81 53 4.0 9.0 0.00 0.00 0.00 10 1012.8
20260830191606 80 52 5.0 9.0 0.00 0.00 0.00 10 1012.8
20260830191506 80 47 5.0 9.0 0.00 0.00 0.00 10 1012.8
20260830191407 80 42 6.0 9.0 0.00 0.00 0.00 10 1012.8
20260830191307 80 38 5.0 8.0 0.00 0.00 0.00 10 1012.8
20260830191206 80 12 5.0 8.0 0.00 0.00 0.00 10 1012.8
20260830191107 80 346 4.0 8.0 0.00 0.00 0.00 10 1012.8
20260830191006 80 329 4.0 8.0 0.00 0.00 0.00 10 1012.8
20260830190906 80 325 4.0 8.0 0.00 0.00 0.00 10 1012.9
20260830190807 80 313 4.0 8.0 0.00 0.00 0.00 10 1012.9
20260830190707 80 310 1.0 8.0 0.00 0.00 0.00 10 1012.9
20260830190606 80 316 1.0 8.0 0.00 0.00 0.00 10 1012.8
20260830190507 80 325 4.0 8.0 0.00 0.00 0.00 10 1012.9
20260830190407 80 331 5.0 8.0 0.00 0.00 0.00 10 1012.9
20260830190307 80 335 3.0 8.0 0.00 0.00 0.00 10 1012.9
20260830190207 80 326 1.0 8.0 0.00 0.00 0.00 10 1012.9
20260830190106 80 326 2.0 9.0 0.00 0.00 0.00 10 1012.9
20260830190007 80 325 2.0 9.0 0.00 0.00 0.00 10 1012.9
20260830185907 80 314 4.0 9.0 0.00 0.00 0.00 10 1013.1
20260830185806 80 318 1.0 9.0 0.00 0.00 0.00 10 1013.1
20260830185706 80 319 3.0 9.0 0.00 0.00 0.00 10 1013.0
20260830185607 80 316 3.0 9.0 0.00 0.00 0.00 10 1013.1
20260830185506 80 317 4.0 9.0 0.00 0.00 0.00 10 1013.1
20260830185407 79 319 4.0 9.0 0.00 0.00 0.00 10 1013.1
20260830185306 80 328 4.0 9.0 0.00 0.00 0.00 10 1013.2
20260830185207 80 339 3.0 9.0 0.00 0.00 0.00 10 1013.1
20260830185107 80 353 5.0 9.0 0.00 0.00 0.00 10 1013.1
20260830185006 80 9 4.0 9.0 0.00 0.00 0.00 10 1013.1
20260830184906 80 17 4.0 9.0 0.00 0.00 0.00 10 1013.2
20260830184807 79 15 2.0 9.0 0.00 0.00 0.00 10 1013.2
20260830184707 79 8 3.0 9.0 0.00 0.00 0.00 10 1013.3
20260830184606 79 10 5.0 9.0 0.00 0.00 0.00 10 1013.2
20260830184507 79 10 5.0 9.0 0.00 0.00 0.00 10 1013.2
20260830184407 79 14 2.0 7.0 0.00 0.00 0.00 10 1013.4
20260830184306 79 8 2.0 7.0 0.00 0.00 0.00 10 1013.4
20260830184207 78 10 2.0 7.0 0.00 0.00 0.00 10 1013.4
20260830184107 79 343 4.0 8.0 0.00 0.00 0.00 10 1013.4
20260830184007 78 320 3.0 8.0 0.00 0.00 0.00 10 1013.4
20260830183906 78 313 4.0 8.0 0.00 0.00 0.00 10 1013.4
20260830183806 78 309 3.0 8.0 0.00 0.00 0.00 10 1013.4
20260830183707 78 309 4.0 8.0 0.00 0.00 0.00 10 1013.5
20260830183606 78 307 1.0 9.0 0.00 0.00 0.00 10 1013.4
20260830183506 78 310 2.0 9.0 0.00 0.00 0.00 10 1013.5
20260830183407 78 312 1.0 9.0 0.00 0.00 0.00 10 1013.6
20260830183307 78 0 0.0 9.0 0.00 0.00 0.00 10 1013.5
20260830183206 78 308 2.0 9.0 0.00 0.00 0.00 10 1013.5
20260830183106 78 315 4.0 9.0 0.00 0.00 0.00 10 1013.5
20260830183007 78 319 4.0 9.0 0.00 0.00 0.00 10 1013.6
20260830182906 78 326 3.0 9.0 0.00 0.00 0.00 10 1013.6
20260830182806 78 336 3.0 9.0 0.00 0.00 0.00 10 1013.5
20260830182706 78 355 3.0 9.0 0.00 0.00 0.00 10 1013.5
20260830182607 78 5 4.0 8.0 0.00 0.00 0.00 10 1013.6
20260830182506 78 359 3.0 8.0 0.00 0.00 0.00 10 1013.6
20260830182406 78 1 3.0 8.0 0.00 0.00 0.00 10 1013.7
20260830182307 77 7 2.0 8.0 0.00 0.00 0.00 11 1013.7
20260830182207 77 6 2.0 8.0 0.00 0.00 0.00 11 1013.6
20260830182106 77 0 0.0 8.0 0.00 0.00 0.00 10 1013.8
20260830182007 77 310 1.0 8.0 0.00 0.00 0.00 10 1013.7
20260830181906 77 253 5.0 8.0 0.00 0.00 0.00 11 1013.7
20260830181806 77 256 6.0 8.0 0.00 0.00 0.00 11 1013.7
20260830181707 77 270 4.0 8.0 0.00 0.00 0.00 11 1013.7
20260830181607 76 281 3.0 8.0 0.00 0.00 0.00 11 1013.7
20260830181506 76 292 3.0 8.0 0.00 0.00 0.00 11 1013.8
20260830181406 76 293 2.0 8.0 0.00 0.00 0.00 12 1013.8
20260830181207 76 283 3.0 8.0 0.00 0.00 0.00 11 1013.7
20260830181106 77 0 0.0 8.0 0.00 0.00 0.00 12 1013.8
20260830181006 77 303 2.0 8.0 0.00 0.00 0.00 11 1013.9
20260830180907 77 325 2.0 8.0 0.00 0.00 0.00 11 1013.8
20260830180807 77 352 4.0 8.0 0.00 0.00 0.00 11 1013.8
20260830180706 77 32 3.0 8.0 0.00 0.00 0.00 12 1013.7
20260830180606 76 71 4.0 8.0 0.00 0.00 0.00 12 1013.7
20260830180507 76 79 2.0 8.0 0.00 0.00 0.00 12 1013.8
20260830180406 76 78 2.0 8.0 0.00 0.00 0.00 12 1013.8
20260830180307 77 64 2.0 8.0 0.00 0.00 0.00 11 1013.8
20260830180206 77 48 3.0 8.0 0.00 0.00 0.00 11 1013.8
20260830180107 77 0 0.0 8.0 0.00 0.00 0.00 12 1013.7
20260830180007 77 0 0.0 8.0 0.00 0.00 0.00 12 1013.9
20260830175906 77 29 4.0 8.0 0.00 0.00 0.00 12 1013.8
20260830175807 77 21 2.0 8.0 0.00 0.00 0.00 12 1013.9
20260830175706 77 10 2.0 8.0 0.00 0.00 0.00 12 1013.8
20260830175606 77 3 2.0 8.0 0.00 0.00 0.00 11 1013.9
20260830175507 77 356 3.0 8.0 0.00 0.00 0.00 11 1013.9
20260830175407 77 6 3.0 8.0 0.00 0.00 0.00 12 1013.9
20260830175307 77 7 1.0 8.0 0.00 0.00 0.00 12 1013.9
20260830175207 77 15 2.0 8.0 0.00 0.00 0.00 12 1013.9
20260830175007 76 357 4.0 8.0 0.00 0.00 0.00 12 1013.9
20260830174907 76 289 3.0 7.0 0.00 0.00 0.00 13 1013.9
20260830174806 76 270 2.0 7.0 0.00 0.00 0.00 13 1013.9
20260830174707 76 246 2.0 5.0 0.00 0.00 0.00 14 1013.9
20260830174607 76 0 0.0 5.0 0.00 0.00 0.00 13 1013.9
20260830174506 76 0 0.0 5.0 0.00 0.00 0.00 13 1013.9
20260830174407 76 269 1.0 5.0 0.00 0.00 0.00 14 1013.9
20260830174307 75 309 2.0 5.0 0.00 0.00 0.00 13 1013.9
20260830174206 75 308 2.0 6.0 0.00 0.00 0.00 13 1014.0
20260830174106 75 316 1.0 6.0 0.00 0.00 0.00 13 1014.0
20260830174007 76 318 2.0 6.0 0.00 0.00 0.00 13 1013.9
20260830173906 76 322 3.0 7.0 0.00 0.00 0.00 13 1014.1
20260830173806 76 312 3.0 7.0 0.00 0.00 0.00 13 1013.9
20260830173706 76 301 2.0 8.0 0.00 0.00 0.00 13 1013.9
20260830173607 75 306 2.0 8.0 0.00 0.00 0.00 13 1013.9
20260830173506 75 300 2.0 8.0 0.00 0.00 0.00 14 1013.9
20260830173406 75 297 1.0 8.0 0.00 0.00 0.00 14 1013.9
20260830173307 75 298 2.0 8.0 0.00 0.00 0.00 13 1013.9
20260830173207 75 299 3.0 8.0 0.00 0.00 0.00 13 1013.9
20260830173106 76 293 4.0 8.0 0.00 0.00 0.00 13 1013.9
20260830173007 76 309 4.0 8.0 0.00 0.00 0.00 13 1013.9
20260830172906 76 333 4.0 8.0 0.00 0.00 0.00 13 1013.9
20260830172806 76 354 3.0 8.0 0.00 0.00 0.00 14 1013.9
20260830172707 76 13 1.0 6.0 0.00 0.00 0.00 15 1014.0
20260830172606 76 6 1.0 6.0 0.00 0.00 0.00 15 1013.9
20260830172506 76 354 1.0 6.0 0.00 0.00 0.00 14 1013.9
20260830172407 75 0 0.0 6.0 0.00 0.00 0.00 14 1014.0
20260830172306 75 354 2.0 6.0 0.00 0.00 0.00 13 1013.9
20260830172207 75 346 2.0 6.0 0.00 0.00 0.00 13 1014.0
20260830172107 75 356 2.0 6.0 0.00 0.00 0.00 13 1014.0
20260830172006 75 2 4.0 6.0 0.00 0.00 0.00 13 1014.0
20260830171907 75 346 2.0 6.0 0.00 0.00 0.00 14 1014.0
20260830171806 75 333 3.0 6.0 0.00 0.00 0.00 15 1014.0
20260830171706 75 336 2.0 7.0 0.00 0.00 0.00 15 1014.0
20260830171607 74 340 2.0 7.0 0.00 0.00 0.00 15 1013.9
20260830171506 74 347 2.0 7.0 0.00 0.00 0.00 15 1014.0
20260830171406 74 343 3.0 7.0 0.00 0.00 0.00 16 1014.0
20260830171306 74 324 2.0 7.0 0.00 0.00 0.00 15 1014.0
20260830171207 74 319 1.0 7.0 0.00 0.00 0.00 15 1014.0
20260830171106 74 316 3.0 7.0 0.00 0.00 0.00 16 1014.1
20260830171007 74 318 3.0 7.0 0.00 0.00 0.00 16 1014.1
20260830170907 74 319 2.0 7.0 0.00 0.00 0.00 17 1014.0
20260830170806 73 342 1.0 7.0 0.00 0.00 0.00 18 1014.1
20260830170708 73 356 2.0 6.0 0.00 0.00 0.00 18 1013.9
20260830170106 74 43 2.0 6.0 0.00 0.00 0.00 17 1013.9
20260830170006 73 38 3.0 6.0 0.00 0.00 0.00 17 1014.0
20260830165906 73 25 2.0 6.0 0.00 0.00 0.00 17 1014.0
20260830165807 73 6 4.0 6.0 0.00 0.00 0.00 17 1014.0
20260830165706 73 346 2.0 4.0 0.00 0.00 0.00 19 1014.0
20260830165606 73 328 2.0 4.0 0.00 0.00 0.00 19 1014.0
20260830165507 73 310 2.0 4.0 0.00 0.00 0.00 19 1014.0
20260830165407 73 0 0.0 4.0 0.00 0.00 0.00 19 1014.1
20260830165306 72 0 0.0 4.0 0.00 0.00 0.00 19 1014.1
20260830165207 72 295 1.0 4.0 0.00 0.00 0.00 19 1014.0
20260830165106 72 288 2.0 4.0 0.00 0.00 0.00 19 1014.1
20260830165006 72 288 2.0 4.0 0.00 0.00 0.00 20 1014.0
20260830164906 72 281 2.0 4.0 0.00 0.00 0.00 20 1014.0
20260830164807 72 280 2.0 4.0 0.00 0.00 0.00 20 1014.0
20260830164707 72 278 1.0 4.0 0.00 0.00 0.00 20 1014.0
20260830164606 72 295 2.0 4.0 0.00 0.00 0.00 20 1014.0
20260830164506 72 0 0.0 4.0 0.00 0.00 0.00 20 1014.1
20260830164407 72 355 2.0 4.0 0.00 0.00 0.00 20 1014.1
20260830164306 72 53 2.0 4.0 0.00 0.00 0.00 20 1014.0
20260830164206 72 60 2.0 4.0 0.00 0.00 0.00 20 1014.1
20260830164106 72 65 2.0 4.0 0.00 0.00 0.00 20 1014.0
20260830164007 72 52 1.0 4.0 0.00 0.00 0.00 21 1014.1
20260830163906 71 41 2.0 4.0 0.00 0.00 0.00 20 1014.1
20260830163807 71 34 2.0 5.0 0.00 0.00 0.00 20 1013.9
20260830163707 71 33 2.0 5.0 0.00 0.00 0.00 21 1014.0
20260830163606 71 35 2.0 5.0 0.00 0.00 0.00 21 1014.0
20260830163507 71 36 1.0 5.0 0.00 0.00 0.00 21 1014.0
20260830163407 71 35 2.0 5.0 0.00 0.00 0.00 21 1014.0
20260830163306 71 37 1.0 5.0 0.00 0.00 0.00 21 1014.0
20260830163207 71 40 1.0 5.0 0.00 0.00 0.00 21 1013.9
20260830163107 71 47 2.0 5.0 0.00 0.00 0.00 21 1014.0
20260830163006 70 50 2.0 5.0 0.00 0.00 0.00 22 1014.0
20260830162907 70 61 2.0 5.0 0.00 0.00 0.00 22 1014.1
20260830162806 70 82 2.0 5.0 0.00 0.00 0.00 23 1014.0
20260830162706 70 273 1.0 3.0 0.00 0.00 0.00 26 1014.1
20260830162607 69 297 2.0 3.0 0.00 0.00 0.00 26 1014.0
20260830162506 69 0 0.0 3.0 0.00 0.00 0.00 26 1014.0
20260830162406 69 0 0.0 3.0 0.00 0.00 0.00 25 1014.1
20260830162307 69 0 0.0 3.0 0.00 0.00 0.00 25 1014.1
20260830162206 69 0 0.0 3.0 0.00 0.00 0.00 25 1014.0
20260830162107 69 307 2.0 3.0 0.00 0.00 0.00 25 1014.0
20260830162007 69 310 1.0 2.0 0.00 0.00 0.00 26 1014.0
20260830161906 69 307 1.0 2.0 0.00 0.00 0.00 26 1014.1
20260830161806 69 296 1.0 2.0 0.00 0.00 0.00 26 1014.0
20260830161707 69 261 1.0 3.0 0.00 0.00 0.00 26 1014.1
20260830161606 69 152 1.0 3.0 0.00 0.00 0.00 26 1014.0
20260830161506 69 147 1.0 3.0 0.00 0.00 0.00 26 1014.1
20260830161406 69 143 1.0 3.0 0.00 0.00 0.00 26 1014.1
20260830161307 69 0 0.0 3.0 0.00 0.00 0.00 27 1014.1
20260830161206 68 146 1.0 3.0 0.00 0.00 0.00 28 1014.0
20260830161106 68 0 0.0 3.0 0.00 0.00 0.00 28 1014.0
20260830160906 68 0 0.0 3.0 0.00 0.00 0.00 28 1014.2
20260830160807 68 164 1.0 3.0 0.00 0.00 0.00 28 1014.2
20260830160706 67 174 1.0 3.0 0.00 0.00 0.00 29 1014.2
20260830160606 67 190 1.0 2.0 0.00 0.00 0.00 29 1014.2
20260830160506 67 193 1.0 2.0 0.00 0.00 0.00 29 1014.0
20260830160407 67 209 1.0 2.0 0.00 0.00 0.00 29 1014.2
20260830160306 66 0 0.0 3.0 0.00 0.00 0.00 30 1014.2
20260830160206 66 0 0.0 3.0 0.00 0.00 0.00 30 1014.2
20260830160106 66 244 1.0 3.0 0.00 0.00 0.00 29 1014.2
20260830160007 66 256 1.0 4.0 0.00 0.00 0.00 29 1014.2
20260830155207 65 243 1.0 4.0 0.00 0.00 0.00 30 1014.3
20260830155106 65 245 2.0 4.0 0.00 0.00 0.00 30 1014.3
20260830155006 65 245 2.0 4.0 0.00 0.00 0.00 30 1014.1
20260830154907 65 242 2.0 4.0 0.00 0.00 0.00 30 1014.3
20260830154806 65 240 2.0 4.0 0.00 0.00 0.00 29 1014.3
20260830154706 65 238 2.0 4.0 0.00 0.00 0.00 29 1014.1
20260830154606 65 239 2.0 4.0 0.00 0.00 0.00 29 1014.3
20260830154507 65 246 2.0 4.0 0.00 0.00 0.00 29 1014.2
20260830154406 65 249 1.0 4.0 0.00 0.00 0.00 29 1014.3
20260830154206 65 248 1.0 4.0 0.00 0.00 0.00 29 1014.1
20260830154107 65 246 1.0 4.0 0.00 0.00 0.00 28 1014.1
20260830154006 65 232 2.0 4.0 0.00 0.00 0.00 29 1014.2
20260830153906 66 208 2.0 4.0 0.00 0.00 0.00 29 1014.1
20260830153806 66 183 1.0 2.0 0.00 0.00 0.00 29 1014.1
20260830153707 66 172 1.0 2.0 0.00 0.00 0.00 29 1014.1
20260830153606 65 0 0.0 2.0 0.00 0.00 0.00 29 1014.1
20260830153507 66 0 0.0 2.0 0.00 0.00 0.00 29 1014.2
20260830153407 66 174 1.0 2.0 0.00 0.00 0.00 29 1014.2
20260830153306 65 0 0.0 2.0 0.00 0.00 0.00 29 1014.1
20260830153207 65 168 1.0 2.0 0.00 0.00 0.00 29 1014.2
20260830153106 65 0 0.0 2.0 0.00 0.00 0.00 30 1014.2
20260830153006 65 0 0.0 2.0 0.00 0.00 0.00 30 1014.2
20260830152906 65 0 0.0 2.0 0.00 0.00 0.00 30 1014.2
20260830152807 65 0 0.0 2.0 0.00 0.00 0.00 30 1014.3
20260830152706 65 0 0.0 2.0 0.00 0.00 0.00 31 1014.2
20260830152606 65 0 0.0 2.0 0.00 0.00 0.00 31 1014.2
20260830152506 65 0 0.0 2.0 0.00 0.00 0.00 31 1014.2
20260830152407 65 0 0.0 2.0 0.00 0.00 0.00 31 1014.2
20260830152306 64 0 0.0 2.0 0.00 0.00 0.00 32 1014.3
20260830152206 64 0 0.0 2.0 0.00 0.00 0.00 32 1014.2
20260830152006 64 0 0.0 2.0 0.00 0.00 0.00 33 1014.3
20260830151906 64 0 0.0 2.0 0.00 0.00 0.00 32 1014.2
20260830151806 64 128 1.0 3.0 0.00 0.00 0.00 32 1014.2
20260830151706 64 130 1.0 3.0 0.00 0.00 0.00 33 1014.3
20260830151606 63 0 0.0 3.0 0.00 0.00 0.00 33 1014.2
20260830151507 63 0 0.0 3.0 0.00 0.00 0.00 33 1014.1
20260830151406 63 0 0.0 3.0 0.00 0.00 0.00 33 1014.2
20260830151306 63 127 1.0 3.0 0.00 0.00 0.00 33 1014.2
20260830151206 63 0 0.0 3.0 0.00 0.00 0.00 33 1014.3
20260830151107 62 0 0.0 3.0 0.00 0.00 0.00 34 1014.2
20260830151006 62 127 1.0 3.0 0.00 0.00 0.00 34 1014.2
20260830150507 61 0 0.0 4.0 0.00 0.00 0.00 35 1014.2
20260830150406 61 0 0.0 4.0 0.00 0.00 0.00 35 1014.2
20260830150306 61 112 1.0 4.0 0.00 0.00 0.00 35 1014.1
20260830150207 60 106 1.0 4.0 0.00 0.00 0.00 35 1014.2
20260830150106 60 0 0.0 4.0 0.00 0.00 0.00 36 1014.2
20260830150006 60 0 0.0 4.0 0.00 0.00 0.00 36 1014.2
20260830145907 60 100 1.0 4.0 0.00 0.00 0.00 36 1014.2
20260830145806 60 97 1.0 4.0 0.00 0.00 0.00 36 1014.2
20260830145706 60 94 1.0 4.0 0.00 0.00 0.00 35 1014.2
20260830145606 60 90 2.0 4.0 0.00 0.00 0.00 35 1014.2
20260830145507 59 90 2.0 4.0 0.00 0.00 0.00 36 1014.2
20260830145406 59 95 2.0 4.0 0.00 0.00 0.00 36 1014.2
20260830145307 59 96 2.0 4.0 0.00 0.00 0.00 36 1014.2
20260830145207 59 97 2.0 4.0 0.00 0.00 0.00 37 1014.2
20260830145106 59 98 2.0 4.0 0.00 0.00 0.00 37 1014.2
20260830145007 59 97 2.0 4.0 0.00 0.00 0.00 38 1014.2
20260830144906 59 104 3.0 4.0 0.00 0.00 0.00 38 1014.2
20260830144806 59 109 2.0 4.0 0.00 0.00 0.00 39 1014.2
20260830144707 58 113 2.0 4.0 0.00 0.00 0.00 40 1014.2
20260830144606 58 121 1.0 3.0 0.00 0.00 0.00 41 1014.2
20260830144506 58 127 1.0 3.0 0.00 0.00 0.00 41 1014.2
20260830144406 58 129 2.0 3.0 0.00 0.00 0.00 42 1014.1
20260830144306 57 0 0.0 2.0 0.00 0.00 0.00 43 1014.3
20260830144207 57 0 0.0 3.0 0.00 0.00 0.00 43 1014.1
20260830144106 57 0 0.0 3.0 0.00 0.00 0.00 43 1014.0
20260830144006 56 0 0.0 3.0 0.00 0.00 0.00 43 1014.1
20260830143906 56 0 0.0 3.0 0.00 0.00 0.00 44 1014.1
20260830143806 56 0 0.0 3.0 0.00 0.00 0.00 44 1014.2
20260830143706 56 0 0.0 3.0 0.00 0.00 0.00 45 1014.1
20260830143206 54 102 2.0 3.0 0.00 0.00 0.00 47 1014.2
20260830143106 54 105 2.0 3.0 0.00 0.00 0.00 47 1014.2
20260830143007 54 107 2.0 3.0 0.00 0.00 0.00 47 1014.3
20260830142906 54 108 2.0 3.0 0.00 0.00 0.00 48 1014.2
20260830142807 53 106 1.0 4.0 0.00 0.00 0.00 48 1014.2
20260830142706 53 104 1.0 4.0 0.00 0.00 0.00 49 1014.2
20260830142206 52 0 0.0 4.0 0.00 0.00 0.00 50 1014.2
20260830142106 52 0 0.0 4.0 0.00 0.00 0.00 50 1014.2
20260830142007 52 0 0.0 4.0 0.00 0.00 0.00 50 1014.1
20260830141906 51 97 2.0 4.0 0.00 0.00 0.00 50 1014.2
20260830141807 51 100 3.0 4.0 0.00 0.00 0.00 50 1014.2
20260830141707 51 107 3.0 4.0 0.00 0.00 0.00 50 1014.1
20260830141606 51 115 1.0 2.0 0.00 0.00 0.00 52 1014.1
20260830141507 51 128 1.0 2.0 0.00 0.00 0.00 52 1014.1
20260830141407 51 0 0.0 2.0 0.00 0.00 0.00 53 1014.2
20260830141306 50 0 0.0 1.0 0.00 0.00 0.00 53 1014.1
20260830141207 50 0 0.0 1.0 0.00 0.00 0.00 53 1014.0
20260830141106 50 0 0.0 1.0 0.00 0.00 0.00 54 1014.0
20260830141006 49 0 0.0 1.0 0.00 0.00 0.00 54 1014.0
20260830140907 49 0 0.0 1.0 0.00 0.00 0.00 55 1014.1
20260830140806 49 0 0.0 1.0 0.00 0.00 0.00 55 1013.9
20260830140706 49 0 0.0 2.0 0.00 0.00 0.00 56 1013.9
20260830140607 48 0 0.0 2.0 0.00 0.00 0.00 56 1014.0
20260830140506 48 0 0.0 2.0 0.00 0.00 0.00 56 1013.9
20260830140406 48 0 0.0 2.0 0.00 0.00 0.00 56 1014.0
20260830140306 48 0 0.0 3.0 0.00 0.00 0.00 56 1013.9
20260830140207 47 0 0.0 3.0 0.00 0.00 0.00 56 1013.9
20260830140106 47 0 0.0 3.0 0.00 0.00 0.00 56 1013.9
20260830140006 47 0 0.0 3.0 0.00 0.00 0.00 56 1014.0
20260830135906 47 0 0.0 3.0 0.00 0.00 0.00 57 1013.9
20260830135806 47 0 0.0 3.0 0.00 0.00 0.00 58 1014.0
20260830135707 47 0 0.0 3.0 0.00 0.00 0.00 58 1013.9
20260830135106 46 0 0.0 0.0 0.00 0.00 0.00 59 1013.9
20260830135006 46 0 0.0 0.0 0.00 0.00 0.00 59 1013.9
20260830134906 46 0 0.0 0.0 0.00 0.00 0.00 59 1013.9
20260830134807 45 0 0.0 0.0 0.00 0.00 0.00 59 1013.8
20260830134706 45 0 0.0 0.0 0.00 0.00 0.00 59 1013.8
20260830134606 45 0 0.0 0.0 0.00 0.00 0.00 59 1013.7
20260830134506 45 0 0.0 1.0 0.00 0.00 0.00 59 1013.8
20260830134406 45 0 0.0 3.0 0.00 0.00 0.00 59 1013.8
20260830134307 45 0 0.0 3.0 0.00 0.00 0.00 59 1013.8
20260830134206 45 0 0.0 3.0 0.00 0.00 0.00 59 1013.7
20260830134006 45 0 0.0 3.0 0.00 0.00 0.00 59 1013.7
20260830133907 45 0 0.0 3.0 0.00 0.00 0.00 59 1013.7
20260830133806 45 0 0.0 3.0 0.00 0.00 0.00 59 1013.8
20260830133706 45 0 0.0 3.0 0.00 0.00 0.00 59 1013.8
20260830133607 45 0 0.0 3.0 0.00 0.00 0.00 59 1013.7
20260830133006 45 0 0.0 4.0 0.00 0.00 0.00 58 1013.8
20260830132906 45 0 0.0 4.0 0.00 0.00 0.00 58 1013.8
20260830132807 45 0 0.0 4.0 0.00 0.00 0.00 58 1013.8
20260830132706 45 0 0.0 4.0 0.00 0.00 0.00 58 1013.7
20260830132607 45 0 0.0 4.0 0.00 0.00 0.00 58 1013.7
20260830132506 45 0 0.0 4.0 0.00 0.00 0.00 58 1013.6
20260830132406 45 104 1.0 4.0 0.00 0.00 0.00 58 1013.6
20260830132307 45 100 2.0 4.0 0.00 0.00 0.00 59 1013.5
20260830132206 45 96 1.0 4.0 0.00 0.00 0.00 59 1013.6
20260830132107 45 93 2.0 4.0 0.00 0.00 0.00 59 1013.6
20260830132006 45 90 2.0 2.0 0.00 0.00 0.00 59 1013.6
20260830131906 45 92 2.0 2.0 0.00 0.00 0.00 59 1013.4
20260830131706 45 98 2.0 4.0 0.00 0.00 0.00 58 1013.5
20260830131606 45 98 1.0 4.0 0.00 0.00 0.00 58 1013.4
20260830131506 45 97 1.0 4.0 0.00 0.00 0.00 58 1013.5
20260830131407 45 96 1.0 4.0 0.00 0.00 0.00 58 1013.4
20260830131306 45 96 2.0 4.0 0.00 0.00 0.00 59 1013.4
20260830131206 45 95 1.0 4.0 0.00 0.00 0.00 59 1013.4
20260830130706 45 90 3.0 4.0 0.00 0.00 0.00 59 1013.3
20260830130106 45 110 2.0 4.0 0.00 0.00 0.00 58 1013.3
20260830130007 45 111 2.0 4.0 0.00 0.00 0.00 58 1013.3
20260830125906 45 113 1.0 4.0 0.00 0.00 0.00 57 1013.3
20260830125806 46 0 0.0 4.0 0.00 0.00 0.00 57 1013.3
20260830125706 46 0 0.0 4.0 0.00 0.00 0.00 57 1013.3
20260830125106 47 134 1.0 2.0 0.00 0.00 0.00 55 1013.3
20260830124606 47 0 0.0 2.0 0.00 0.00 0.00 54 1013.4
20260830124507 47 0 0.0 2.0 0.00 0.00 0.00 54 1013.4
20260830123906 47 0 0.0 2.0 0.00 0.00 0.00 53 1013.3
20260830123806 47 0 0.0 2.0 0.00 0.00 0.00 53 1013.3
20260830123706 47 0 0.0 2.0 0.00 0.00 0.00 53 1013.4
20260830123606 47 0 0.0 2.0 0.00 0.00 0.00 53 1013.3
20260830123506 47 0 0.0 2.0 0.00 0.00 0.00 53 1013.3
20260830123406 48 0 0.0 2.0 0.00 0.00 0.00 53 1013.2
20260830123306 48 0 0.0 2.0 0.00 0.00 0.00 53 1013.2
20260830123207 48 0 0.0 2.0 0.00 0.00 0.00 53 1013.1
20260830123106 48 0 0.0 2.0 0.00 0.00 0.00 53 1013.2
20260830123007 48 80 1.0 3.0 0.00 0.00 0.00 53 1013.1
20260830122907 48 80 2.0 3.0 0.00 0.00 0.00 53 1013.1